| time (UTC) | temp F | wind direction | speed MPH | gust MPH | rain 1hr in | rain 24hr in | rain mn in | humidity % | barometer mb |
| 20260507060004 | 56 | 312 | 6.0 | 10.0 | 0.00 | 0.00 | 0.00 | 74 | 1012.5 |
| 20260507055854 | 56 | 287 | 5.0 | 10.0 | 0.00 | 0.00 | 0.00 | 74 | 1012.5 |
| 20260507055755 | 56 | 270 | 5.0 | 10.0 | 0.00 | 0.00 | 0.00 | 74 | 1012.5 |
| 20260507055636 | 56 | 280 | 7.0 | 10.0 | 0.00 | 0.00 | 0.00 | 74 | 1012.5 |
| 20260507055606 | 56 | 266 | 6.0 | 11.0 | 0.00 | 0.00 | 0.00 | 75 | 1011.6 |
| 20260507055505 | 56 | 268 | 6.0 | 11.0 | 0.00 | 0.00 | 0.00 | 75 | 1012.5 |
| 20260507055408 | 56 | 251 | 6.0 | 11.0 | 0.00 | 0.00 | 0.00 | 75 | 1012.5 |
| 20260507055316 | 56 | 288 | 6.0 | 11.0 | 0.00 | 0.00 | 0.00 | 75 | 1012.5 |
| 20260507055218 | 56 | 271 | 6.0 | 11.0 | 0.00 | 0.00 | 0.00 | 75 | 1012.5 |
| 20260507055148 | 56 | 276 | 6.0 | 14.0 | 0.00 | 0.00 | 0.00 | 74 | 1011.6 |
| 20260507055112 | 56 | 278 | 7.0 | 14.0 | 0.00 | 0.00 | 0.00 | 74 | 1012.5 |
| 20260507055013 | 56 | 292 | 8.0 | 14.0 | 0.00 | 0.00 | 0.00 | 75 | 1012.5 |
| 20260507054915 | 56 | 280 | 9.0 | 14.0 | 0.00 | 0.00 | 0.00 | 74 | 1012.5 |
| 20260507054817 | 56 | 283 | 8.0 | 14.0 | 0.00 | 0.00 | 0.00 | 75 | 1012.5 |
| 20260507054647 | 56 | 274 | 8.0 | 14.0 | 0.00 | 0.00 | 0.00 | 75 | 1012.4 |
| 20260507054551 | 56 | 290 | 9.0 | 14.0 | 0.00 | 0.00 | 0.00 | 75 | 1012.5 |
| 20260507054433 | 56 | 282 | 9.0 | 14.0 | 0.00 | 0.00 | 0.00 | 75 | 1012.5 |
| 20260507054326 | 56 | 261 | 9.0 | 14.0 | 0.00 | 0.00 | 0.00 | 75 | 1012.5 |
| 20260507054227 | 56 | 278 | 8.0 | 12.0 | 0.00 | 0.00 | 0.00 | 76 | 1012.5 |
| 20260507054130 | 56 | 274 | 7.0 | 10.0 | 0.00 | 0.00 | 0.00 | 76 | 1012.4 |
| 20260507054007 | 56 | 269 | 7.0 | 13.0 | 0.00 | 0.00 | 0.00 | 76 | 1012.4 |
| 20260507053903 | 56 | 248 | 6.0 | 13.0 | 0.00 | 0.00 | 0.00 | 76 | 1012.4 |
| 20260507053806 | 56 | 272 | 7.0 | 13.0 | 0.00 | 0.00 | 0.00 | 76 | 1012.4 |
| 20260507053707 | 56 | 286 | 8.0 | 13.0 | 0.00 | 0.00 | 0.00 | 76 | 1012.4 |
| 20260507053611 | 55 | 278 | 8.0 | 13.0 | 0.00 | 0.00 | 0.00 | 76 | 1012.4 |
| 20260507053546 | 55 | 276 | 7.0 | 13.0 | 0.00 | 0.00 | 0.00 | 76 | 1011.4 |
| 20260507053500 | 55 | 276 | 8.0 | 13.0 | 0.00 | 0.00 | 0.00 | 76 | 1012.3 |
| 20260507053401 | 55 | 274 | 10.0 | 13.0 | 0.00 | 0.00 | 0.00 | 76 | 1012.3 |
| 20260507053309 | 55 | 272 | 10.0 | 13.0 | 0.00 | 0.00 | 0.00 | 76 | 1012.3 |
| 20260507053140 | 55 | 270 | 9.0 | 14.0 | 0.00 | 0.00 | 0.00 | 76 | 1012.3 |
| 20260507053040 | 55 | 280 | 9.0 | 14.0 | 0.00 | 0.00 | 0.00 | 76 | 1012.3 |
| 20260507052918 | 55 | 276 | 8.0 | 14.0 | 0.00 | 0.00 | 0.00 | 76 | 1012.2 |
| 20260507052820 | 55 | 260 | 8.0 | 14.0 | 0.00 | 0.00 | 0.00 | 76 | 1012.2 |
| 20260507052722 | 55 | 247 | 9.0 | 14.0 | 0.00 | 0.00 | 0.00 | 76 | 1012.2 |
| 20260507052636 | 55 | 268 | 9.0 | 14.0 | 0.00 | 0.00 | 0.00 | 76 | 1011.3 |
| 20260507052551 | 55 | 275 | 9.0 | 14.0 | 0.00 | 0.00 | 0.00 | 76 | 1012.2 |
| 20260507052456 | 55 | 278 | 9.0 | 14.0 | 0.00 | 0.00 | 0.00 | 76 | 1012.2 |
| 20260507052359 | 55 | 273 | 9.0 | 14.0 | 0.00 | 0.00 | 0.00 | 76 | 1012.2 |
| 20260507052232 | 55 | 271 | 9.0 | 12.0 | 0.00 | 0.00 | 0.00 | 76 | 1012.1 |
| 20260507052134 | 55 | 259 | 9.0 | 12.0 | 0.00 | 0.00 | 0.00 | 76 | 1012.1 |
| 20260507052035 | 55 | 280 | 8.0 | 12.0 | 0.00 | 0.00 | 0.00 | 76 | 1012.0 |
| 20260507052003 | 54 | 263 | 7.0 | 12.0 | 0.00 | 0.00 | 0.00 | 76 | 1011.1 |
| 20260507051927 | 55 | 272 | 9.0 | 12.0 | 0.00 | 0.00 | 0.00 | 76 | 1012.0 |
| 20260507051813 | 55 | 279 | 9.0 | 12.0 | 0.00 | 0.00 | 0.00 | 76 | 1012.0 |
| 20260507051714 | 55 | 289 | 9.0 | 12.0 | 0.00 | 0.00 | 0.00 | 76 | 1012.0 |
| 20260507051617 | 55 | 270 | 9.0 | 12.0 | 0.00 | 0.00 | 0.00 | 77 | 1012.0 |
| 20260507051540 | 54 | 265 | 9.0 | 12.0 | 0.00 | 0.00 | 0.00 | 77 | 1011.0 |
| 20260507051509 | 55 | 292 | 9.0 | 12.0 | 0.00 | 0.00 | 0.00 | 77 | 1012.0 |
| 20260507051412 | 55 | 295 | 8.0 | 12.0 | 0.00 | 0.00 | 0.00 | 77 | 1012.0 |
| 20260507051314 | 55 | 272 | 8.0 | 12.0 | 0.00 | 0.00 | 0.00 | 77 | 1012.0 |
| 20260507051219 | 55 | 263 | 7.0 | 12.0 | 0.00 | 0.00 | 0.00 | 77 | 1012.0 |
| 20260507051148 | 54 | 260 | 7.0 | 12.0 | 0.00 | 0.00 | 0.00 | 77 | 1011.0 |
| 20260507051109 | 54 | 263 | 8.0 | 12.0 | 0.00 | 0.00 | 0.00 | 77 | 1012.0 |
| 20260507050951 | 54 | 267 | 8.0 | 12.0 | 0.00 | 0.00 | 0.00 | 77 | 1012.0 |
| 20260507050854 | 54 | 261 | 7.0 | 10.0 | 0.00 | 0.00 | 0.00 | 78 | 1012.0 |
| 20260507050756 | 54 | 271 | 7.0 | 10.0 | 0.00 | 0.00 | 0.00 | 78 | 1012.0 |
| 20260507050651 | 54 | 280 | 7.0 | 10.0 | 0.00 | 0.00 | 0.00 | 78 | 1012.0 |
| 20260507050551 | 54 | 261 | 6.0 | 10.0 | 0.00 | 0.00 | 0.00 | 78 | 1012.0 |
| 20260507050458 | 54 | 274 | 6.0 | 10.0 | 0.00 | 0.00 | 0.00 | 78 | 1011.9 |
| 20260507050332 | 54 | 259 | 7.0 | 10.0 | 0.00 | 0.00 | 0.00 | 78 | 1011.9 |
| 20260507050233 | 54 | 253 | 6.0 | 10.0 | 0.00 | 0.00 | 0.00 | 78 | 1011.9 |
| 20260507050135 | 54 | 285 | 6.0 | 10.0 | 0.00 | 0.00 | 0.00 | 78 | 1011.9 |
| 20260507050103 | 54 | 271 | 5.0 | 10.0 | 0.00 | 0.00 | 0.00 | 78 | 1011.0 |
| 20260507050026 | 54 | 278 | 6.0 | 10.0 | 0.00 | 0.00 | 0.00 | 78 | 1011.9 |
| 20260507045928 | 54 | 282 | 7.0 | 10.0 | 0.00 | 0.00 | 0.00 | 78 | 1011.9 |
| 20260507045656 | 54 | 275 | 7.0 | 11.0 | 0.00 | 0.00 | 0.00 | 78 | 1011.9 |
| 20260507045536 | 54 | 273 | 7.0 | 11.0 | 0.00 | 0.00 | 0.00 | 78 | 1011.9 |
| 20260507045438 | 54 | 279 | 8.0 | 11.0 | 0.00 | 0.00 | 0.00 | 78 | 1011.9 |
| 20260507045342 | 54 | 282 | 8.0 | 11.0 | 0.00 | 0.00 | 0.00 | 78 | 1011.9 |
| 20260507045246 | 54 | 284 | 8.0 | 11.0 | 0.00 | 0.00 | 0.00 | 78 | 1011.9 |
| 20260507045139 | 54 | 274 | 8.0 | 12.0 | 0.00 | 0.00 | 0.00 | 78 | 1011.9 |
| 20260507045042 | 54 | 257 | 8.0 | 12.0 | 0.00 | 0.00 | 0.00 | 79 | 1011.8 |
| 20260507044946 | 54 | 282 | 8.0 | 12.0 | 0.00 | 0.00 | 0.00 | 79 | 1011.8 |
| 20260507044839 | 54 | 282 | 8.0 | 12.0 | 0.00 | 0.00 | 0.00 | 79 | 1011.8 |
| 20260507044719 | 54 | 280 | 8.0 | 12.0 | 0.00 | 0.00 | 0.00 | 79 | 1011.8 |
| 20260507044623 | 54 | 280 | 8.0 | 12.0 | 0.00 | 0.00 | 0.00 | 79 | 1011.7 |
| 20260507044524 | 54 | 272 | 9.0 | 12.0 | 0.00 | 0.00 | 0.00 | 79 | 1011.7 |
| 20260507044421 | 54 | 266 | 9.0 | 12.0 | 0.00 | 0.00 | 0.00 | 79 | 1011.6 |
| 20260507044325 | 54 | 265 | 8.0 | 12.0 | 0.00 | 0.00 | 0.00 | 79 | 1011.7 |
| 20260507044225 | 54 | 280 | 7.0 | 12.0 | 0.00 | 0.00 | 0.00 | 79 | 1011.7 |
| 20260507044036 | 53 | 301 | 7.0 | 12.0 | 0.00 | 0.00 | 0.00 | 79 | 1010.8 |
| 20260507043948 | 53 | 257 | 7.0 | 12.0 | 0.00 | 0.00 | 0.00 | 79 | 1011.6 |
| 20260507043850 | 53 | 279 | 8.0 | 12.0 | 0.00 | 0.00 | 0.00 | 79 | 1011.6 |
| 20260507043752 | 53 | 279 | 8.0 | 12.0 | 0.00 | 0.00 | 0.00 | 79 | 1011.6 |
| 20260507043639 | 53 | 276 | 9.0 | 12.0 | 0.00 | 0.00 | 0.00 | 79 | 1011.6 |
| 20260507043613 | 53 | 270 | 9.0 | 12.0 | 0.00 | 0.00 | 0.00 | 79 | 1010.7 |
| 20260507043531 | 53 | 269 | 9.0 | 12.0 | 0.00 | 0.00 | 0.00 | 79 | 1011.6 |
| 20260507043413 | 53 | 265 | 8.0 | 11.0 | 0.00 | 0.00 | 0.00 | 79 | 1011.6 |
| 20260507043317 | 53 | 265 | 8.0 | 11.0 | 0.00 | 0.00 | 0.00 | 79 | 1011.6 |
| 20260507043219 | 53 | 281 | 9.0 | 11.0 | 0.00 | 0.00 | 0.00 | 79 | 1011.6 |
| 20260507043156 | 53 | 274 | 9.0 | 11.0 | 0.00 | 0.00 | 0.00 | 79 | 1010.7 |
| 20260507043112 | 53 | 282 | 9.0 | 11.0 | 0.00 | 0.00 | 0.00 | 80 | 1011.6 |
| 20260507043012 | 53 | 274 | 8.0 | 11.0 | 0.00 | 0.00 | 0.00 | 80 | 1011.6 |
| 20260507042919 | 53 | 267 | 8.0 | 10.0 | 0.00 | 0.00 | 0.00 | 80 | 1011.6 |
| 20260507042813 | 53 | 270 | 8.0 | 10.0 | 0.00 | 0.00 | 0.00 | 80 | 1011.6 |
| 20260507042654 | 53 | 276 | 8.0 | 10.0 | 0.00 | 0.00 | 0.00 | 80 | 1011.4 |
| 20260507042554 | 53 | 272 | 8.0 | 10.0 | 0.00 | 0.00 | 0.00 | 80 | 1011.5 |
| 20260507042456 | 53 | 274 | 8.0 | 10.0 | 0.00 | 0.00 | 0.00 | 80 | 1011.5 |
| 20260507042218 | 53 | 276 | 8.0 | 10.0 | 0.00 | 0.00 | 0.00 | 80 | 1011.4 |
| 20260507042124 | 53 | 273 | 8.0 | 10.0 | 0.00 | 0.00 | 0.00 | 80 | 1011.4 |
| 20260507042052 | 53 | 252 | 7.0 | 10.0 | 0.00 | 0.00 | 0.00 | 80 | 1010.5 |
| 20260507042016 | 53 | 276 | 7.0 | 10.0 | 0.00 | 0.00 | 0.00 | 80 | 1011.4 |
| 20260507041918 | 53 | 269 | 7.0 | 10.0 | 0.00 | 0.00 | 0.00 | 80 | 1011.4 |
| 20260507041820 | 53 | 276 | 6.0 | 10.0 | 0.00 | 0.00 | 0.00 | 80 | 1011.4 |
| 20260507041723 | 53 | 272 | 6.0 | 11.0 | 0.00 | 0.00 | 0.00 | 80 | 1011.3 |
| 20260507041636 | 53 | 265 | 5.0 | 11.0 | 0.00 | 0.00 | 0.00 | 80 | 1010.5 |
| 20260507041534 | 53 | 272 | 7.0 | 12.0 | 0.00 | 0.00 | 0.00 | 80 | 1011.3 |
| 20260507041442 | 53 | 268 | 8.0 | 12.0 | 0.00 | 0.00 | 0.00 | 80 | 1011.3 |
| 20260507041313 | 53 | 270 | 7.0 | 12.0 | 0.00 | 0.00 | 0.00 | 80 | 1011.2 |
| 20260507041215 | 53 | 273 | 7.0 | 12.0 | 0.00 | 0.00 | 0.00 | 79 | 1011.2 |
| 20260507041119 | 53 | 278 | 8.0 | 12.0 | 0.00 | 0.00 | 0.00 | 79 | 1011.3 |
| 20260507041019 | 53 | 267 | 9.0 | 12.0 | 0.00 | 0.00 | 0.00 | 79 | 1011.3 |
| 20260507040912 | 53 | 286 | 9.0 | 12.0 | 0.00 | 0.00 | 0.00 | 79 | 1011.2 |
| 20260507040820 | 53 | 269 | 9.0 | 12.0 | 0.00 | 0.00 | 0.00 | 79 | 1011.2 |
| 20260507040723 | 53 | 263 | 9.0 | 11.0 | 0.00 | 0.00 | 0.00 | 79 | 1011.3 |
| 20260507040626 | 53 | 257 | 9.0 | 11.0 | 0.00 | 0.00 | 0.00 | 79 | 1011.3 |
| 20260507040553 | 53 | 268 | 8.0 | 11.0 | 0.00 | 0.00 | 0.00 | 79 | 1010.4 |
| 20260507040516 | 53 | 263 | 9.0 | 11.0 | 0.00 | 0.00 | 0.00 | 79 | 1011.2 |
| 20260507040420 | 53 | 271 | 9.0 | 11.0 | 0.00 | 0.00 | 0.00 | 79 | 1011.2 |
| 20260507040321 | 53 | 268 | 9.0 | 11.0 | 0.00 | 0.00 | 0.00 | 79 | 1011.2 |
| 20260507040223 | 53 | 270 | 9.0 | 10.0 | 0.00 | 0.00 | 0.00 | 79 | 1011.2 |
| 20260507040155 | 53 | 268 | 8.0 | 10.0 | 0.00 | 0.00 | 0.00 | 79 | 1010.3 |
| 20260507040115 | 53 | 266 | 8.0 | 11.0 | 0.00 | 0.00 | 0.00 | 79 | 1011.2 |
| 20260507035936 | 53 | 266 | 8.0 | 11.0 | 0.00 | 0.00 | 0.00 | 79 | 1011.2 |
| 20260507035839 | 53 | 270 | 8.0 | 11.0 | 0.00 | 0.00 | 0.00 | 79 | 1011.2 |
| 20260507035743 | 54 | 257 | 7.0 | 12.0 | 0.00 | 0.00 | 0.00 | 78 | 1011.2 |
| 20260507035615 | 54 | 280 | 7.0 | 12.0 | 0.00 | 0.00 | 0.00 | 78 | 1011.1 |
| 20260507035515 | 54 | 284 | 6.0 | 12.0 | 0.00 | 0.00 | 0.00 | 78 | 1011.1 |
| 20260507035423 | 54 | 268 | 6.0 | 12.0 | 0.00 | 0.00 | 0.00 | 78 | 1011.1 |
| 20260507035326 | 54 | 270 | 8.0 | 12.0 | 0.00 | 0.00 | 0.00 | 78 | 1011.1 |
| 20260507035218 | 54 | 271 | 8.0 | 12.0 | 0.00 | 0.00 | 0.00 | 78 | 1011.0 |
| 20260507035120 | 54 | 265 | 8.0 | 12.0 | 0.00 | 0.00 | 0.00 | 78 | 1011.0 |
| 20260507034959 | 54 | 268 | 9.0 | 12.0 | 0.00 | 0.00 | 0.00 | 78 | 1011.0 |
| 20260507034850 | 54 | 261 | 10.0 | 12.0 | 0.00 | 0.00 | 0.00 | 78 | 1010.9 |
| 20260507034737 | 54 | 274 | 9.0 | 12.0 | 0.00 | 0.00 | 0.00 | 78 | 1010.9 |
| 20260507034640 | 54 | 268 | 9.0 | 13.0 | 0.00 | 0.00 | 0.00 | 78 | 1010.9 |
| 20260507034601 | 53 | 276 | 9.0 | 13.0 | 0.00 | 0.00 | 0.00 | 78 | 1010.1 |
| 20260507034510 | 54 | 270 | 9.0 | 13.0 | 0.00 | 0.00 | 0.00 | 78 | 1011.0 |
| 20260507034352 | 54 | 274 | 9.0 | 13.0 | 0.00 | 0.00 | 0.00 | 78 | 1011.0 |
| 20260507034254 | 54 | 263 | 10.0 | 13.0 | 0.00 | 0.00 | 0.00 | 78 | 1011.0 |
| 20260507034148 | 54 | 275 | 10.0 | 13.0 | 0.00 | 0.00 | 0.00 | 78 | 1010.9 |
| 20260507034049 | 54 | 271 | 9.0 | 13.0 | 0.00 | 0.00 | 0.00 | 78 | 1010.9 |
| 20260507033954 | 54 | 265 | 9.0 | 13.0 | 0.00 | 0.00 | 0.00 | 78 | 1010.9 |
| 20260507033857 | 54 | 267 | 10.0 | 13.0 | 0.00 | 0.00 | 0.00 | 78 | 1010.9 |
| 20260507033732 | 54 | 286 | 9.0 | 13.0 | 0.00 | 0.00 | 0.00 | 78 | 1010.9 |
| 20260507033636 | 54 | 265 | 8.0 | 11.0 | 0.00 | 0.00 | 0.00 | 78 | 1010.9 |
| 20260507033514 | 54 | 277 | 8.0 | 11.0 | 0.00 | 0.00 | 0.00 | 77 | 1010.9 |
| 20260507033221 | 54 | 263 | 8.0 | 11.0 | 0.00 | 0.00 | 0.00 | 77 | 1010.8 |
| 20260507033121 | 54 | 288 | 9.0 | 11.0 | 0.00 | 0.00 | 0.00 | 77 | 1010.8 |
| 20260507033029 | 53 | 271 | 8.0 | 11.0 | 0.00 | 0.00 | 0.00 | 77 | 1009.9 |
| 20260507032934 | 54 | 294 | 9.0 | 11.0 | 0.00 | 0.00 | 0.00 | 77 | 1010.8 |
| 20260507032836 | 54 | 288 | 9.0 | 12.0 | 0.00 | 0.00 | 0.00 | 77 | 1010.8 |
| 20260507032719 | 54 | 287 | 8.0 | 12.0 | 0.00 | 0.00 | 0.00 | 77 | 1010.8 |
| 20260507032649 | 53 | 279 | 7.0 | 12.0 | 0.00 | 0.00 | 0.00 | 77 | 1009.9 |
| 20260507032611 | 54 | 299 | 8.0 | 12.0 | 0.00 | 0.00 | 0.00 | 77 | 1010.8 |
| 20260507032437 | 54 | 276 | 8.0 | 12.0 | 0.00 | 0.00 | 0.00 | 77 | 1010.8 |
| 20260507032319 | 54 | 268 | 8.0 | 12.0 | 0.00 | 0.00 | 0.00 | 77 | 1010.8 |
| 20260507032213 | 54 | 274 | 9.0 | 12.0 | 0.00 | 0.00 | 0.00 | 77 | 1010.8 |
| 20260507032113 | 54 | 272 | 9.0 | 12.0 | 0.00 | 0.00 | 0.00 | 77 | 1010.8 |
| 20260507032014 | 54 | 277 | 9.0 | 12.0 | 0.00 | 0.00 | 0.00 | 77 | 1010.8 |
| 20260507031917 | 54 | 286 | 10.0 | 12.0 | 0.00 | 0.00 | 0.00 | 77 | 1010.8 |
| 20260507031755 | 54 | 274 | 9.0 | 12.0 | 0.00 | 0.00 | 0.00 | 77 | 1010.8 |
| 20260507031658 | 54 | 265 | 8.0 | 12.0 | 0.00 | 0.00 | 0.00 | 77 | 1010.8 |
| 20260507031559 | 54 | 269 | 8.0 | 12.0 | 0.00 | 0.00 | 0.00 | 77 | 1010.8 |
| 20260507031502 | 54 | 272 | 9.0 | 12.0 | 0.00 | 0.00 | 0.00 | 77 | 1010.8 |
| 20260507031355 | 54 | 276 | 10.0 | 12.0 | 0.00 | 0.00 | 0.00 | 77 | 1010.8 |
| 20260507031259 | 54 | 279 | 10.0 | 12.0 | 0.00 | 0.00 | 0.00 | 77 | 1010.8 |
| 20260507031141 | 54 | 265 | 9.0 | 11.0 | 0.00 | 0.00 | 0.00 | 77 | 1010.8 |
| 20260507031044 | 54 | 273 | 9.0 | 11.0 | 0.00 | 0.00 | 0.00 | 77 | 1010.8 |
| 20260507031021 | 54 | 274 | 8.0 | 11.0 | 0.00 | 0.00 | 0.00 | 77 | 1009.9 |
| 20260507030938 | 54 | 270 | 9.0 | 11.0 | 0.00 | 0.00 | 0.00 | 77 | 1010.8 |
| 20260507030842 | 54 | 274 | 9.0 | 11.0 | 0.00 | 0.00 | 0.00 | 77 | 1010.8 |
| 20260507030745 | 54 | 270 | 8.0 | 11.0 | 0.00 | 0.00 | 0.00 | 77 | 1010.8 |
| 20260507030627 | 54 | 276 | 8.0 | 11.0 | 0.00 | 0.00 | 0.00 | 77 | 1010.9 |
| 20260507030603 | 54 | 277 | 8.0 | 11.0 | 0.00 | 0.00 | 0.00 | 77 | 1010.0 |
| 20260507030519 | 54 | 272 | 9.0 | 11.0 | 0.00 | 0.00 | 0.00 | 77 | 1010.9 |
| 20260507030425 | 54 | 271 | 9.0 | 11.0 | 0.00 | 0.00 | 0.00 | 77 | 1010.9 |
| 20260507030327 | 54 | 269 | 8.0 | 11.0 | 0.00 | 0.00 | 0.00 | 76 | 1010.9 |
| 20260507030209 | 54 | 269 | 8.0 | 11.0 | 0.00 | 0.00 | 0.00 | 76 | 1010.9 |
| 20260507030139 | 54 | 259 | 7.0 | 11.0 | 0.00 | 0.00 | 0.00 | 76 | 1010.0 |
| 20260507030057 | 54 | 280 | 7.0 | 11.0 | 0.00 | 0.00 | 0.00 | 76 | 1010.9 |
| 20260507025959 | 54 | 265 | 8.0 | 11.0 | 0.00 | 0.00 | 0.00 | 76 | 1010.9 |
| 20260507025900 | 54 | 265 | 8.0 | 12.0 | 0.00 | 0.00 | 0.00 | 76 | 1010.9 |
| 20260507025754 | 54 | 266 | 9.0 | 13.0 | 0.00 | 0.00 | 0.00 | 76 | 1010.9 |
| 20260507025701 | 55 | 268 | 8.0 | 13.0 | 0.00 | 0.00 | 0.00 | 76 | 1010.9 |
| 20260507025604 | 55 | 257 | 9.0 | 14.0 | 0.00 | 0.00 | 0.00 | 76 | 1010.9 |
| 20260507025444 | 55 | 255 | 9.0 | 14.0 | 0.00 | 0.00 | 0.00 | 76 | 1010.9 |
| 20260507025337 | 55 | 278 | 8.0 | 14.0 | 0.00 | 0.00 | 0.00 | 76 | 1010.9 |
| 20260507025239 | 55 | 261 | 8.0 | 14.0 | 0.00 | 0.00 | 0.00 | 76 | 1010.8 |
| 20260507025120 | 55 | 268 | 10.0 | 14.0 | 0.00 | 0.00 | 0.00 | 76 | 1010.8 |
| 20260507025024 | 55 | 253 | 10.0 | 14.0 | 0.00 | 0.00 | 0.00 | 76 | 1010.9 |
| 20260507025001 | 54 | 256 | 10.0 | 14.0 | 0.00 | 0.00 | 0.00 | 76 | 1010.0 |
| 20260507024917 | 55 | 258 | 10.0 | 14.0 | 0.00 | 0.00 | 0.00 | 76 | 1010.8 |
| 20260507024819 | 55 | 272 | 9.0 | 14.0 | 0.00 | 0.00 | 0.00 | 76 | 1010.8 |
| 20260507024723 | 55 | 268 | 9.0 | 14.0 | 0.00 | 0.00 | 0.00 | 76 | 1010.8 |
| 20260507024649 | 54 | 263 | 9.0 | 14.0 | 0.00 | 0.00 | 0.00 | 75 | 1009.9 |
| 20260507024615 | 55 | 251 | 10.0 | 14.0 | 0.00 | 0.00 | 0.00 | 75 | 1010.7 |
| 20260507024456 | 55 | 256 | 10.0 | 14.0 | 0.00 | 0.00 | 0.00 | 75 | 1010.7 |
| 20260507024338 | 55 | 252 | 11.0 | 14.0 | 0.00 | 0.00 | 0.00 | 75 | 1010.7 |
| 20260507024243 | 55 | 272 | 10.0 | 17.0 | 0.00 | 0.00 | 0.00 | 75 | 1010.7 |
| 20260507024143 | 55 | 274 | 10.0 | 17.0 | 0.00 | 0.00 | 0.00 | 75 | 1010.8 |
| 20260507024118 | 55 | 261 | 9.0 | 17.0 | 0.00 | 0.00 | 0.00 | 75 | 1009.9 |
| 20260507024033 | 55 | 276 | 10.0 | 17.0 | 0.00 | 0.00 | 0.00 | 75 | 1010.7 |
| 20260507023937 | 55 | 245 | 10.0 | 17.0 | 0.00 | 0.00 | 0.00 | 75 | 1010.7 |
| 20260507023839 | 55 | 263 | 11.0 | 17.0 | 0.00 | 0.00 | 0.00 | 75 | 1010.7 |
| 20260507023700 | 55 | 270 | 11.0 | 17.0 | 0.00 | 0.00 | 0.00 | 75 | 1010.7 |
| 20260507023634 | 55 | 279 | 10.0 | 17.0 | 0.00 | 0.00 | 0.00 | 75 | 1009.8 |
| 20260507023535 | 55 | 263 | 11.0 | 17.0 | 0.00 | 0.00 | 0.00 | 74 | 1010.7 |
| 20260507023439 | 55 | 267 | 11.0 | 17.0 | 0.00 | 0.00 | 0.00 | 74 | 1010.6 |
| 20260507023333 | 55 | 276 | 11.0 | 15.0 | 0.00 | 0.00 | 0.00 | 74 | 1010.6 |
| 20260507023213 | 55 | 268 | 10.0 | 17.0 | 0.00 | 0.00 | 0.00 | 74 | 1010.6 |
| 20260507023115 | 55 | 268 | 11.0 | 19.0 | 0.00 | 0.00 | 0.00 | 74 | 1010.6 |
| 20260507023015 | 56 | 253 | 12.0 | 19.0 | 0.00 | 0.00 | 0.00 | 74 | 1010.5 |
| 20260507022842 | 56 | 270 | 12.0 | 19.0 | 0.00 | 0.00 | 0.00 | 74 | 1010.5 |
| 20260507022734 | 56 | 263 | 12.0 | 19.0 | 0.00 | 0.00 | 0.00 | 74 | 1010.5 |
| 20260507022615 | 56 | 274 | 12.0 | 19.0 | 0.00 | 0.00 | 0.00 | 74 | 1010.5 |
| 20260507022517 | 56 | 268 | 13.0 | 19.0 | 0.00 | 0.00 | 0.00 | 74 | 1010.5 |
| 20260507022420 | 56 | 263 | 14.0 | 19.0 | 0.00 | 0.00 | 0.00 | 73 | 1010.5 |
| 20260507022311 | 56 | 260 | 15.0 | 19.0 | 0.00 | 0.00 | 0.00 | 73 | 1010.5 |
| 20260507022214 | 56 | 276 | 13.0 | 19.0 | 0.00 | 0.00 | 0.00 | 73 | 1010.6 |
| 20260507022120 | 56 | 278 | 13.0 | 17.0 | 0.00 | 0.00 | 0.00 | 73 | 1010.6 |
| 20260507022043 | 55 | 258 | 13.0 | 19.0 | 0.00 | 0.00 | 0.00 | 73 | 1009.7 |
| 20260507022008 | 56 | 266 | 13.0 | 19.0 | 0.00 | 0.00 | 0.00 | 73 | 1010.5 |
| 20260507021911 | 56 | 282 | 13.0 | 19.0 | 0.00 | 0.00 | 0.00 | 73 | 1010.6 |
| 20260507021814 | 56 | 264 | 13.0 | 20.0 | 0.00 | 0.00 | 0.00 | 73 | 1010.6 |
| 20260507021717 | 56 | 268 | 13.0 | 20.0 | 0.00 | 0.00 | 0.00 | 73 | 1010.5 |
| 20260507021643 | 55 | 293 | 13.0 | 20.0 | 0.00 | 0.00 | 0.00 | 73 | 1009.7 |
| 20260507021610 | 56 | 270 | 12.0 | 20.0 | 0.00 | 0.00 | 0.00 | 73 | 1010.6 |
| 20260507021436 | 56 | 268 | 12.0 | 20.0 | 0.00 | 0.00 | 0.00 | 73 | 1010.5 |
| 20260507021340 | 56 | 281 | 13.0 | 20.0 | 0.00 | 0.00 | 0.00 | 73 | 1010.5 |
| 20260507021232 | 56 | 264 | 14.0 | 20.0 | 0.00 | 0.00 | 0.00 | 73 | 1010.5 |
| 20260507021135 | 56 | 259 | 15.0 | 20.0 | 0.00 | 0.00 | 0.00 | 73 | 1010.5 |
| 20260507021036 | 56 | 246 | 13.0 | 20.0 | 0.00 | 0.00 | 0.00 | 73 | 1010.5 |
| 20260507020918 | 56 | 277 | 13.0 | 20.0 | 0.00 | 0.00 | 0.00 | 73 | 1010.4 |
| 20260507020816 | 56 | 257 | 12.0 | 23.0 | 0.00 | 0.00 | 0.00 | 73 | 1010.4 |
| 20260507020718 | 56 | 274 | 12.0 | 23.0 | 0.00 | 0.00 | 0.00 | 73 | 1010.4 |
| 20260507020622 | 56 | 263 | 13.0 | 23.0 | 0.00 | 0.00 | 0.00 | 73 | 1010.4 |
| 20260507020523 | 56 | 268 | 13.0 | 23.0 | 0.00 | 0.00 | 0.00 | 73 | 1010.4 |
| 20260507020355 | 56 | 271 | 14.0 | 23.0 | 0.00 | 0.00 | 0.00 | 73 | 1010.3 |
| 20260507020258 | 56 | 268 | 15.0 | 23.0 | 0.00 | 0.00 | 0.00 | 73 | 1010.3 |
| 20260507020200 | 56 | 263 | 16.0 | 23.0 | 0.00 | 0.00 | 0.00 | 73 | 1010.3 |
| 20260507020108 | 56 | 257 | 16.0 | 23.0 | 0.00 | 0.00 | 0.00 | 73 | 1010.3 |
| 20260507020055 | 56 | 274 | 16.0 | 23.0 | 0.00 | 0.00 | 0.00 | 73 | 1009.4 |
| 20260507015958 | 56 | 270 | 15.0 | 22.0 | 0.00 | 0.00 | 0.00 | 73 | 1010.3 |
| 20260507015840 | 56 | 276 | 13.0 | 20.0 | 0.00 | 0.00 | 0.00 | 73 | 1010.3 |
| 20260507015744 | 56 | 249 | 14.0 | 20.0 | 0.00 | 0.00 | 0.00 | 73 | 1010.3 |
| 20260507015638 | 56 | 267 | 14.0 | 22.0 | 0.00 | 0.00 | 0.00 | 73 | 1010.4 |
| 20260507015539 | 56 | 275 | 13.0 | 22.0 | 0.00 | 0.00 | 0.00 | 72 | 1010.4 |
| 20260507015425 | 56 | 271 | 13.0 | 22.0 | 0.00 | 0.00 | 0.00 | 72 | 1010.3 |
| 20260507015328 | 56 | 274 | 12.0 | 22.0 | 0.00 | 0.00 | 0.00 | 72 | 1010.3 |
| 20260507015220 | 56 | 273 | 13.0 | 22.0 | 0.00 | 0.00 | 0.00 | 72 | 1010.3 |
| 20260507015122 | 56 | 260 | 14.0 | 22.0 | 0.00 | 0.00 | 0.00 | 72 | 1010.3 |
| 20260507015021 | 56 | 268 | 15.0 | 22.0 | 0.00 | 0.00 | 0.00 | 72 | 1010.3 |
| 20260507014925 | 56 | 267 | 16.0 | 22.0 | 0.00 | 0.00 | 0.00 | 72 | 1010.3 |
| 20260507014820 | 56 | 251 | 17.0 | 23.0 | 0.00 | 0.00 | 0.00 | 72 | 1010.3 |
| 20260507014706 | 56 | 261 | 16.0 | 23.0 | 0.00 | 0.00 | 0.00 | 73 | 1010.3 |
| 20260507014607 | 56 | 271 | 16.0 | 23.0 | 0.00 | 0.00 | 0.00 | 73 | 1010.3 |
| 20260507014447 | 56 | 280 | 14.0 | 21.0 | 0.00 | 0.00 | 0.00 | 73 | 1010.3 |
| 20260507014340 | 56 | 270 | 14.0 | 21.0 | 0.00 | 0.00 | 0.00 | 73 | 1010.3 |
| 20260507014241 | 56 | 278 | 15.0 | 21.0 | 0.00 | 0.00 | 0.00 | 73 | 1010.2 |
| 20260507014145 | 56 | 277 | 13.0 | 21.0 | 0.00 | 0.00 | 0.00 | 73 | 1010.3 |
| 20260507014050 | 56 | 274 | 12.0 | 18.0 | 0.00 | 0.00 | 0.00 | 73 | 1010.3 |
| 20260507014022 | 56 | 278 | 12.0 | 18.0 | 0.00 | 0.00 | 0.00 | 73 | 1009.3 |
| 20260507013943 | 56 | 276 | 12.0 | 18.0 | 0.00 | 0.00 | 0.00 | 73 | 1010.2 |
| 20260507013847 | 56 | 287 | 11.0 | 18.0 | 0.00 | 0.00 | 0.00 | 73 | 1010.3 |
| 20260507013751 | 56 | 289 | 11.0 | 23.0 | 0.00 | 0.00 | 0.00 | 73 | 1010.2 |
| 20260507013656 | 56 | 259 | 11.0 | 23.0 | 0.00 | 0.00 | 0.00 | 73 | 1009.3 |
| 20260507013623 | 56 | 270 | 13.0 | 23.0 | 0.00 | 0.00 | 0.00 | 73 | 1010.2 |
| 20260507013524 | 56 | 274 | 15.0 | 23.0 | 0.00 | 0.00 | 0.00 | 73 | 1010.2 |
| 20260507013425 | 56 | 271 | 13.0 | 23.0 | 0.00 | 0.00 | 0.00 | 73 | 1010.2 |
| 20260507013154 | 56 | 261 | 13.0 | 23.0 | 0.00 | 0.00 | 0.00 | 73 | 1010.2 |
| 20260507013054 | 56 | 267 | 16.0 | 23.0 | 0.00 | 0.00 | 0.00 | 73 | 1010.1 |
| 20260507012956 | 56 | 266 | 17.0 | 23.0 | 0.00 | 0.00 | 0.00 | 73 | 1010.1 |
| 20260507012858 | 56 | 261 | 16.0 | 22.0 | 0.00 | 0.00 | 0.00 | 73 | 1010.1 |
| 20260507012751 | 56 | 259 | 16.0 | 22.0 | 0.00 | 0.00 | 0.00 | 73 | 1010.2 |
| 20260507012654 | 56 | 272 | 16.0 | 22.0 | 0.00 | 0.00 | 0.00 | 73 | 1010.1 |
| 20260507012558 | 56 | 261 | 16.0 | 22.0 | 0.00 | 0.00 | 0.00 | 73 | 1010.2 |
| 20260507012502 | 56 | 267 | 16.0 | 23.0 | 0.00 | 0.00 | 0.00 | 73 | 1010.2 |
| 20260507012356 | 56 | 268 | 17.0 | 23.0 | 0.00 | 0.00 | 0.00 | 73 | 1010.2 |
| 20260507012259 | 56 | 270 | 17.0 | 28.0 | 0.00 | 0.00 | 0.00 | 73 | 1010.1 |
| 20260507012158 | 56 | 259 | 16.0 | 28.0 | 0.00 | 0.00 | 0.00 | 72 | 1010.0 |
| 20260507012124 | 56 | 264 | 16.0 | 28.0 | 0.00 | 0.00 | 0.00 | 72 | 1009.1 |
| 20260507012050 | 56 | 258 | 17.0 | 28.0 | 0.00 | 0.00 | 0.00 | 72 | 1010.1 |
| 20260507011935 | 56 | 252 | 17.0 | 28.0 | 0.00 | 0.00 | 0.00 | 73 | 1010.0 |
| 20260507011838 | 57 | 258 | 17.0 | 28.0 | 0.00 | 0.00 | 0.00 | 73 | 1010.0 |
| 20260507011642 | 56 | 271 | 16.0 | 28.0 | 0.00 | 0.00 | 0.00 | 73 | 1009.0 |
| 20260507011605 | 57 | 249 | 18.0 | 28.0 | 0.00 | 0.00 | 0.00 | 72 | 1009.9 |
| 20260507011505 | 57 | 259 | 21.0 | 28.0 | 0.00 | 0.00 | 0.00 | 72 | 1010.0 |
| 20260507011408 | 56 | 279 | 21.0 | 29.0 | 0.00 | 0.00 | 0.00 | 73 | 1009.9 |
| 20260507011311 | 56 | 242 | 19.0 | 27.0 | 0.00 | 0.00 | 0.00 | 73 | 1009.8 |
| 20260507011206 | 56 | 253 | 19.0 | 27.0 | 0.00 | 0.00 | 0.00 | 73 | 1009.8 |
| 20260507011110 | 56 | 268 | 18.0 | 27.0 | 0.00 | 0.00 | 0.00 | 73 | 1009.8 |
| 20260507011010 | 56 | 270 | 17.0 | 24.0 | 0.00 | 0.00 | 0.00 | 73 | 1009.8 |
| 20260507010913 | 56 | 256 | 17.0 | 24.0 | 0.00 | 0.00 | 0.00 | 73 | 1009.8 |
| 20260507010806 | 57 | 257 | 17.0 | 28.0 | 0.00 | 0.00 | 0.00 | 73 | 1009.7 |
| 20260507010708 | 57 | 256 | 18.0 | 28.0 | 0.00 | 0.00 | 0.00 | 73 | 1009.7 |
| 20260507010611 | 57 | 276 | 18.0 | 28.0 | 0.00 | 0.00 | 0.00 | 73 | 1009.8 |
| 20260507010515 | 57 | 249 | 19.0 | 28.0 | 0.00 | 0.00 | 0.00 | 73 | 1009.8 |
| 20260507010409 | 57 | 265 | 16.0 | 28.0 | 0.00 | 0.00 | 0.00 | 73 | 1009.8 |
| 20260507010252 | 57 | 266 | 17.0 | 28.0 | 0.00 | 0.00 | 0.00 | 73 | 1009.8 |
| 20260507010112 | 57 | 251 | 20.0 | 31.0 | 0.00 | 0.00 | 0.00 | 73 | 1009.7 |
| 20260507010040 | 56 | 270 | 19.0 | 31.0 | 0.00 | 0.00 | 0.00 | 73 | 1008.7 |
| 20260507005835 | 57 | 259 | 22.0 | 31.0 | 0.00 | 0.00 | 0.00 | 73 | 1009.7 |
| 20260507005738 | 57 | 272 | 20.0 | 31.0 | 0.00 | 0.00 | 0.00 | 73 | 1009.7 |
| 20260507005645 | 57 | 247 | 19.0 | 31.0 | 0.00 | 0.00 | 0.00 | 73 | 1009.7 |
| 20260507005548 | 56 | 288 | 17.0 | 31.0 | 0.00 | 0.00 | 0.00 | 73 | 1008.7 |
| 20260507005515 | 57 | 257 | 20.0 | 31.0 | 0.00 | 0.00 | 0.00 | 73 | 1009.6 |
| 20260507005357 | 57 | 236 | 22.0 | 31.0 | 0.00 | 0.00 | 0.00 | 73 | 1009.7 |
| 20260507005259 | 57 | 247 | 22.0 | 31.0 | 0.00 | 0.00 | 0.00 | 73 | 1009.6 |
| 20260507005201 | 57 | 248 | 22.0 | 29.0 | 0.00 | 0.00 | 0.00 | 73 | 1009.7 |
| 20260507005106 | 56 | 268 | 21.0 | 29.0 | 0.00 | 0.00 | 0.00 | 73 | 1008.7 |
| 20260507005032 | 57 | 274 | 22.0 | 29.0 | 0.00 | 0.00 | 0.00 | 73 | 1009.7 |
| 20260507004939 | 57 | 266 | 22.0 | 29.0 | 0.00 | 0.00 | 0.00 | 73 | 1009.7 |
| 20260507004819 | 57 | 256 | 20.0 | 29.0 | 0.00 | 0.00 | 0.00 | 73 | 1009.7 |
| 20260507004723 | 57 | 273 | 21.0 | 27.0 | 0.00 | 0.00 | 0.00 | 73 | 1009.7 |
| 20260507004628 | 57 | 274 | 20.0 | 27.0 | 0.00 | 0.00 | 0.00 | 73 | 1009.8 |
| 20260507004539 | 56 | 282 | 19.0 | 27.0 | 0.00 | 0.00 | 0.00 | 73 | 1008.7 |
| 20260507004457 | 57 | 264 | 19.0 | 26.0 | 0.00 | 0.00 | 0.00 | 73 | 1009.8 |
| 20260507004340 | 57 | 280 | 19.0 | 26.0 | 0.00 | 0.00 | 0.00 | 73 | 1009.8 |
| 20260507004138 | 56 | 266 | 13.0 | 26.0 | 0.00 | 0.00 | 0.00 | 74 | 1008.8 |
| 20260507004107 | 57 | 273 | 15.0 | 26.0 | 0.00 | 0.00 | 0.00 | 74 | 1009.8 |
| 20260507004007 | 57 | 263 | 17.0 | 26.0 | 0.00 | 0.00 | 0.00 | 74 | 1009.8 |
| 20260507003910 | 57 | 271 | 17.0 | 26.0 | 0.00 | 0.00 | 0.00 | 74 | 1009.8 |
| 20260507003813 | 57 | 266 | 16.0 | 26.0 | 0.00 | 0.00 | 0.00 | 74 | 1009.8 |
| 20260507003706 | 57 | 274 | 18.0 | 26.0 | 0.00 | 0.00 | 0.00 | 74 | 1009.8 |
| 20260507003608 | 57 | 259 | 20.0 | 26.0 | 0.00 | 0.00 | 0.00 | 74 | 1009.8 |
| 20260507003508 | 57 | 259 | 18.0 | 25.0 | 0.00 | 0.00 | 0.00 | 74 | 1009.8 |
| 20260507003416 | 57 | 257 | 17.0 | 24.0 | 0.00 | 0.00 | 0.00 | 74 | 1009.8 |
| 20260507003311 | 57 | 232 | 15.0 | 26.0 | 0.00 | 0.00 | 0.00 | 74 | 1009.9 |
| 20260507003211 | 57 | 272 | 17.0 | 28.0 | 0.00 | 0.00 | 0.00 | 74 | 1009.9 |
| 20260507003051 | 57 | 281 | 17.0 | 28.0 | 0.00 | 0.00 | 0.00 | 74 | 1010.0 |
| 20260507002956 | 57 | 274 | 15.0 | 28.0 | 0.00 | 0.00 | 0.00 | 74 | 1010.0 |
| 20260507002848 | 57 | 270 | 15.0 | 28.0 | 0.00 | 0.00 | 0.00 | 74 | 1010.0 |
| 20260507002755 | 57 | 276 | 16.0 | 28.0 | 0.00 | 0.00 | 0.00 | 74 | 1009.9 |
| 20260507002659 | 57 | 270 | 16.0 | 28.0 | 0.00 | 0.00 | 0.00 | 74 | 1010.0 |
| 20260507002600 | 57 | 280 | 18.0 | 28.0 | 0.00 | 0.00 | 0.00 | 75 | 1010.0 |
| 20260507002536 | 57 | 248 | 17.0 | 28.0 | 0.00 | 0.00 | 0.00 | 74 | 1009.0 |
| 20260507002452 | 57 | 279 | 19.0 | 28.0 | 0.00 | 0.00 | 0.00 | 75 | 1009.9 |
| 20260507002355 | 57 | 273 | 17.0 | 28.0 | 0.00 | 0.00 | 0.00 | 75 | 1009.9 |
| 20260507002259 | 57 | 242 | 16.0 | 26.0 | 0.00 | 0.00 | 0.00 | 75 | 1009.9 |
| 20260507002130 | 57 | 226 | 16.0 | 26.0 | 0.00 | 0.00 | 0.00 | 75 | 1009.9 |
| 20260507002035 | 57 | 270 | 18.0 | 26.0 | 0.00 | 0.00 | 0.00 | 75 | 1009.9 |
| 20260507001917 | 57 | 257 | 20.0 | 26.0 | 0.00 | 0.00 | 0.00 | 75 | 1009.9 |
| 20260507001819 | 57 | 253 | 20.0 | 26.0 | 0.00 | 0.00 | 0.00 | 75 | 1009.8 |
| 20260507001712 | 57 | 229 | 18.0 | 25.0 | 0.00 | 0.00 | 0.00 | 75 | 1009.9 |
| 20260507001552 | 58 | 258 | 20.0 | 25.0 | 0.00 | 0.00 | 0.00 | 75 | 1009.9 |
| 20260507001434 | 58 | 257 | 17.0 | 25.0 | 0.00 | 0.00 | 0.00 | 75 | 1009.8 |
| 20260507001321 | 58 | 228 | 16.0 | 25.0 | 0.00 | 0.00 | 0.00 | 75 | 1009.8 |
| 20260507001214 | 58 | 271 | 17.0 | 26.0 | 0.00 | 0.00 | 0.00 | 75 | 1009.9 |
| 20260507001118 | 58 | 268 | 18.0 | 26.0 | 0.00 | 0.00 | 0.00 | 75 | 1009.8 |
| 20260507001019 | 58 | 253 | 17.0 | 26.0 | 0.00 | 0.00 | 0.00 | 75 | 1009.9 |
| 20260507000921 | 58 | 248 | 19.0 | 26.0 | 0.00 | 0.00 | 0.00 | 75 | 1009.9 |
| 20260507000733 | 58 | 262 | 20.0 | 26.0 | 0.00 | 0.00 | 0.00 | 75 | 1009.9 |
| 20260507000639 | 58 | 261 | 21.0 | 26.0 | 0.00 | 0.00 | 0.00 | 76 | 1009.9 |
| 20260507000539 | 58 | 215 | 19.0 | 26.0 | 0.00 | 0.00 | 0.00 | 76 | 1009.9 |
| 20260507000413 | 58 | 243 | 16.0 | 25.0 | 0.00 | 0.00 | 0.00 | 76 | 1009.9 |
| 20260507000315 | 58 | 244 | 16.0 | 25.0 | 0.00 | 0.00 | 0.00 | 76 | 1009.8 |
| 20260507000219 | 58 | 249 | 15.0 | 25.0 | 0.00 | 0.00 | 0.00 | 76 | 1009.7 |
| 20260507000120 | 58 | 234 | 17.0 | 25.0 | 0.00 | 0.00 | 0.00 | 76 | 1009.7 |
| 20260507000054 | 57 | 268 | 18.0 | 25.0 | 0.00 | 0.00 | 0.00 | 76 | 1008.7 |
| 20260507000012 | 58 | 278 | 19.0 | 25.0 | 0.00 | 0.00 | 0.00 | 76 | 1009.7 |
| 20260506235920 | 58 | 258 | 19.0 | 25.0 | 0.00 | 0.00 | 0.00 | 76 | 1009.7 |
| 20260506235823 | 58 | 235 | 18.0 | 24.0 | 0.00 | 0.00 | 0.00 | 76 | 1009.7 |
| 20260506235725 | 58 | 229 | 17.0 | 24.0 | 0.00 | 0.00 | 0.00 | 76 | 1009.7 |
| 20260506235658 | 57 | 248 | 17.0 | 24.0 | 0.00 | 0.00 | 0.00 | 76 | 1008.7 |
| 20260506235555 | 58 | 262 | 17.0 | 24.0 | 0.00 | 0.00 | 0.00 | 76 | 1009.6 |
| 20260506235458 | 58 | 257 | 17.0 | 24.0 | 0.00 | 0.00 | 0.00 | 76 | 1009.7 |
| 20260506235400 | 58 | 247 | 18.0 | 26.0 | 0.00 | 0.00 | 0.00 | 76 | 1009.7 |
| 20260506235307 | 58 | 265 | 19.0 | 26.0 | 0.00 | 0.00 | 0.00 | 76 | 1009.7 |
| 20260506235200 | 58 | 249 | 18.0 | 26.0 | 0.00 | 0.00 | 0.00 | 76 | 1009.7 |
| 20260506235103 | 58 | 261 | 15.0 | 26.0 | 0.00 | 0.00 | 0.00 | 76 | 1009.7 |
| 20260506235002 | 58 | 234 | 15.0 | 26.0 | 0.00 | 0.00 | 0.00 | 76 | 1009.7 |
| 20260506234906 | 58 | 248 | 15.0 | 26.0 | 0.00 | 0.00 | 0.00 | 76 | 1009.6 |
| 20260506234736 | 58 | 246 | 18.0 | 26.0 | 0.00 | 0.00 | 0.00 | 76 | 1009.7 |
| 20260506234639 | 58 | 271 | 20.0 | 26.0 | 0.00 | 0.00 | 0.00 | 76 | 1009.6 |
| 20260506234544 | 58 | 274 | 20.0 | 26.0 | 0.00 | 0.00 | 0.00 | 76 | 1009.6 |
| 20260506234510 | 57 | 262 | 19.0 | 27.0 | 0.00 | 0.00 | 0.00 | 76 | 1008.6 |
| 20260506234437 | 58 | 260 | 17.0 | 24.0 | 0.00 | 0.00 | 0.00 | 76 | 1009.5 |
| 20260506234320 | 58 | 271 | 16.0 | 28.0 | 0.00 | 0.00 | 0.00 | 76 | 1009.6 |
| 20260506234221 | 58 | 269 | 17.0 | 28.0 | 0.00 | 0.00 | 0.00 | 76 | 1009.6 |
| 20260506234123 | 58 | 261 | 16.0 | 28.0 | 0.00 | 0.00 | 0.00 | 76 | 1009.6 |
| 20260506234005 | 58 | 266 | 17.0 | 28.0 | 0.00 | 0.00 | 0.00 | 76 | 1009.6 |
| 20260506233902 | 58 | 258 | 19.0 | 28.0 | 0.00 | 0.00 | 0.00 | 76 | 1009.5 |
| 20260506233804 | 58 | 268 | 18.0 | 28.0 | 0.00 | 0.00 | 0.00 | 76 | 1009.4 |
| 20260506233706 | 58 | 253 | 19.0 | 28.0 | 0.00 | 0.00 | 0.00 | 76 | 1009.4 |
| 20260506233609 | 58 | 250 | 19.0 | 28.0 | 0.00 | 0.00 | 0.00 | 76 | 1009.4 |
| 20260506233545 | 58 | 266 | 18.0 | 28.0 | 0.00 | 0.00 | 0.00 | 76 | 1008.4 |
| 20260506233500 | 58 | 242 | 16.0 | 24.0 | 0.00 | 0.00 | 0.00 | 76 | 1009.4 |
| 20260506233402 | 58 | 191 | 17.0 | 24.0 | 0.00 | 0.00 | 0.00 | 75 | 1009.4 |
| 20260506233302 | 58 | 246 | 17.0 | 25.0 | 0.00 | 0.00 | 0.00 | 75 | 1009.4 |
| 20260506233156 | 58 | 270 | 15.0 | 27.0 | 0.00 | 0.00 | 0.00 | 75 | 1009.2 |
| 20260506233036 | 58 | 250 | 14.0 | 29.0 | 0.00 | 0.00 | 0.00 | 75 | 1009.2 |
| 20260506232917 | 58 | 254 | 14.0 | 29.0 | 0.00 | 0.00 | 0.00 | 75 | 1009.2 |
| 20260506232759 | 58 | 263 | 16.0 | 29.0 | 0.00 | 0.00 | 0.00 | 75 | 1009.2 |
| 20260506232652 | 58 | 270 | 19.0 | 32.0 | 0.00 | 0.00 | 0.00 | 75 | 1009.2 |
| 20260506232553 | 58 | 267 | 21.0 | 32.0 | 0.00 | 0.00 | 0.00 | 75 | 1009.2 |
| 20260506232500 | 58 | 255 | 21.0 | 32.0 | 0.00 | 0.00 | 0.00 | 75 | 1009.2 |
| 20260506232403 | 58 | 273 | 20.0 | 32.0 | 0.00 | 0.00 | 0.00 | 75 | 1009.1 |
| 20260506232255 | 58 | 238 | 19.0 | 32.0 | 0.00 | 0.00 | 0.00 | 75 | 1009.0 |
| 20260506232138 | 58 | 255 | 20.0 | 32.0 | 0.00 | 0.00 | 0.00 | 75 | 1009.1 |
| 20260506232018 | 58 | 250 | 23.0 | 32.0 | 0.00 | 0.00 | 0.00 | 75 | 1009.0 |
| 20260506231921 | 58 | 265 | 24.0 | 32.0 | 0.00 | 0.00 | 0.00 | 75 | 1009.0 |
| 20260506231814 | 58 | 262 | 23.0 | 30.0 | 0.00 | 0.00 | 0.00 | 75 | 1009.0 |
| 20260506231722 | 58 | 257 | 21.0 | 28.0 | 0.00 | 0.00 | 0.00 | 75 | 1009.0 |
| 20260506231602 | 58 | 259 | 20.0 | 28.0 | 0.00 | 0.00 | 0.00 | 75 | 1008.9 |
| 20260506231502 | 58 | 245 | 19.0 | 28.0 | 0.00 | 0.00 | 0.00 | 75 | 1008.9 |
| 20260506231355 | 58 | 259 | 19.0 | 28.0 | 0.00 | 0.00 | 0.00 | 75 | 1008.9 |
| 20260506231258 | 58 | 280 | 20.0 | 28.0 | 0.00 | 0.00 | 0.00 | 75 | 1008.8 |
| 20260506231200 | 58 | 273 | 21.0 | 28.0 | 0.00 | 0.00 | 0.00 | 75 | 1008.8 |
| 20260506231124 | 58 | 249 | 21.0 | 28.0 | 0.00 | 0.00 | 0.00 | 75 | 1007.8 |
| 20260506231036 | 58 | 251 | 20.0 | 28.0 | 0.00 | 0.00 | 0.00 | 75 | 1008.8 |
| 20260506230938 | 58 | 267 | 20.0 | 28.0 | 0.00 | 0.00 | 0.00 | 75 | 1008.8 |
| 20260506230820 | 58 | 268 | 21.0 | 29.0 | 0.00 | 0.00 | 0.00 | 75 | 1008.8 |
| 20260506230705 | 58 | 258 | 20.0 | 32.0 | 0.00 | 0.00 | 0.00 | 75 | 1008.8 |
| 20260506230639 | 58 | 238 | 19.0 | 32.0 | 0.00 | 0.00 | 0.00 | 75 | 1007.8 |
| 20260506230555 | 58 | 265 | 19.0 | 32.0 | 0.00 | 0.00 | 0.00 | 75 | 1008.8 |
| 20260506230457 | 58 | 257 | 19.0 | 32.0 | 0.00 | 0.00 | 0.00 | 75 | 1008.8 |
| 20260506230402 | 58 | 272 | 20.0 | 32.0 | 0.00 | 0.00 | 0.00 | 75 | 1008.8 |
| 20260506230255 | 58 | 271 | 20.0 | 32.0 | 0.00 | 0.00 | 0.00 | 75 | 1008.7 |
| 20260506230158 | 58 | 265 | 18.0 | 32.0 | 0.00 | 0.00 | 0.00 | 75 | 1008.8 |
| 20260506230058 | 58 | 253 | 19.0 | 32.0 | 0.00 | 0.00 | 0.00 | 76 | 1008.7 |
| 20260506230000 | 58 | 263 | 20.0 | 32.0 | 0.00 | 0.00 | 0.00 | 76 | 1008.7 |
| 20260506225905 | 58 | 268 | 21.0 | 32.0 | 0.00 | 0.00 | 0.00 | 76 | 1008.7 |
| 20260506225756 | 58 | 233 | 19.0 | 32.0 | 0.00 | 0.00 | 0.00 | 76 | 1008.7 |
| 20260506225703 | 58 | 234 | 15.0 | 29.0 | 0.00 | 0.00 | 0.00 | 76 | 1008.7 |
| 20260506225604 | 59 | 243 | 17.0 | 29.0 | 0.00 | 0.00 | 0.00 | 76 | 1008.7 |
| 20260506225425 | 59 | 247 | 19.0 | 30.0 | 0.00 | 0.00 | 0.00 | 76 | 1008.7 |
| 20260506225318 | 59 | 257 | 21.0 | 33.0 | 0.00 | 0.00 | 0.00 | 76 | 1008.7 |
| 20260506225221 | 59 | 253 | 22.0 | 33.0 | 0.00 | 0.00 | 0.00 | 76 | 1008.7 |
| 20260506225058 | 59 | 270 | 23.0 | 33.0 | 0.00 | 0.00 | 0.00 | 76 | 1008.7 |
| 20260506225027 | 58 | 268 | 23.0 | 33.0 | 0.00 | 0.00 | 0.00 | 76 | 1007.7 |
| 20260506224936 | 59 | 250 | 22.0 | 33.0 | 0.00 | 0.00 | 0.00 | 76 | 1008.7 |
| 20260506224837 | 59 | 261 | 22.0 | 33.0 | 0.00 | 0.00 | 0.00 | 76 | 1008.6 |
| 20260506224741 | 59 | 280 | 24.0 | 33.0 | 0.00 | 0.00 | 0.00 | 76 | 1008.7 |
| 20260506224648 | 58 | 261 | 24.0 | 33.0 | 0.00 | 0.00 | 0.00 | 76 | 1007.6 |
| 20260506224614 | 59 | 276 | 26.0 | 33.0 | 0.00 | 0.00 | 0.00 | 76 | 1008.6 |
| 20260506224515 | 59 | 253 | 27.0 | 33.0 | 0.00 | 0.00 | 0.00 | 76 | 1008.6 |
| 20260506224418 | 59 | 247 | 25.0 | 33.0 | 0.00 | 0.00 | 0.00 | 75 | 1008.5 |
| 20260506224324 | 59 | 261 | 23.0 | 32.0 | 0.00 | 0.00 | 0.00 | 75 | 1008.6 |
| 20260506224155 | 59 | 249 | 23.0 | 32.0 | 0.00 | 0.00 | 0.00 | 75 | 1008.5 |
| 20260506224057 | 59 | 260 | 24.0 | 32.0 | 0.00 | 0.00 | 0.00 | 75 | 1008.6 |
| 20260506224000 | 59 | 268 | 23.0 | 33.0 | 0.00 | 0.00 | 0.00 | 75 | 1008.6 |
| 20260506223904 | 59 | 284 | 23.0 | 33.0 | 0.00 | 0.00 | 0.00 | 75 | 1008.6 |
| 20260506223757 | 59 | 243 | 24.0 | 33.0 | 0.00 | 0.00 | 0.00 | 75 | 1008.7 |
| 20260506223700 | 59 | 257 | 24.0 | 33.0 | 0.00 | 0.00 | 0.00 | 75 | 1008.7 |
| 20260506223607 | 59 | 265 | 23.0 | 33.0 | 0.00 | 0.00 | 0.00 | 75 | 1008.6 |
| 20260506223447 | 60 | 245 | 23.0 | 33.0 | 0.00 | 0.00 | 0.00 | 76 | 1008.6 |
| 20260506223340 | 60 | 250 | 22.0 | 30.0 | 0.00 | 0.00 | 0.00 | 76 | 1008.5 |
| 20260506223242 | 60 | 265 | 22.0 | 30.0 | 0.00 | 0.00 | 0.00 | 76 | 1008.5 |
| 20260506223145 | 60 | 251 | 23.0 | 30.0 | 0.00 | 0.00 | 0.00 | 75 | 1008.6 |
| 20260506223025 | 60 | 249 | 24.0 | 30.0 | 0.00 | 0.00 | 0.00 | 75 | 1008.5 |
| 20260506223003 | 59 | 268 | 23.0 | 30.0 | 0.00 | 0.00 | 0.00 | 75 | 1007.5 |
| 20260506222922 | 60 | 270 | 24.0 | 30.0 | 0.00 | 0.00 | 0.00 | 75 | 1008.4 |
| 20260506222825 | 60 | 275 | 25.0 | 30.0 | 0.00 | 0.00 | 0.00 | 75 | 1008.5 |
| 20260506222726 | 60 | 251 | 22.0 | 30.0 | 0.00 | 0.00 | 0.00 | 75 | 1008.4 |
| 20260506222651 | 59 | 253 | 25.0 | 31.0 | 0.00 | 0.00 | 0.00 | 75 | 1007.4 |
| 20260506222619 | 60 | 266 | 24.0 | 30.0 | 0.00 | 0.00 | 0.00 | 75 | 1008.4 |
| 20260506222517 | 60 | 261 | 24.0 | 29.0 | 0.00 | 0.00 | 0.00 | 75 | 1008.4 |
| 20260506222421 | 60 | 257 | 22.0 | 30.0 | 0.00 | 0.00 | 0.00 | 75 | 1008.5 |
| 20260506222306 | 60 | 212 | 21.0 | 30.0 | 0.00 | 0.00 | 0.00 | 75 | 1008.4 |
| 20260506222157 | 60 | 249 | 22.0 | 30.0 | 0.00 | 0.00 | 0.00 | 76 | 1008.3 |
| 20260506222057 | 60 | 263 | 21.0 | 30.0 | 0.00 | 0.00 | 0.00 | 76 | 1008.4 |
| 20260506222000 | 60 | 259 | 20.0 | 30.0 | 0.00 | 0.00 | 0.00 | 76 | 1008.3 |
| 20260506221901 | 60 | 248 | 20.0 | 30.0 | 0.00 | 0.00 | 0.00 | 76 | 1008.3 |
| 20260506221755 | 60 | 255 | 21.0 | 30.0 | 0.00 | 0.00 | 0.00 | 76 | 1008.3 |
| 20260506221658 | 61 | 271 | 23.0 | 30.0 | 0.00 | 0.00 | 0.00 | 75 | 1008.2 |
| 20260506221607 | 61 | 272 | 22.0 | 30.0 | 0.00 | 0.00 | 0.00 | 75 | 1008.2 |
| 20260506221507 | 61 | 273 | 22.0 | 30.0 | 0.00 | 0.00 | 0.00 | 76 | 1008.2 |
| 20260506221340 | 61 | 251 | 22.0 | 30.0 | 0.00 | 0.00 | 0.00 | 76 | 1008.2 |
| 20260506221242 | 61 | 248 | 22.0 | 30.0 | 0.00 | 0.00 | 0.00 | 76 | 1008.2 |
| 20260506221145 | 61 | 265 | 22.0 | 30.0 | 0.00 | 0.00 | 0.00 | 76 | 1008.2 |
| 20260506221024 | 61 | 256 | 19.0 | 31.0 | 0.00 | 0.00 | 0.00 | 77 | 1008.2 |
| 20260506220915 | 61 | 276 | 18.0 | 31.0 | 0.00 | 0.00 | 0.00 | 77 | 1008.1 |
| 20260506220801 | 61 | 247 | 19.0 | 31.0 | 0.00 | 0.00 | 0.00 | 77 | 1008.1 |
| 20260506220703 | 61 | 261 | 21.0 | 31.0 | 0.00 | 0.00 | 0.00 | 77 | 1008.1 |
| 20260506220605 | 61 | 271 | 24.0 | 31.0 | 0.00 | 0.00 | 0.00 | 77 | 1008.1 |
| 20260506220536 | 60 | 259 | 22.0 | 31.0 | 0.00 | 0.00 | 0.00 | 77 | 1007.1 |
| 20260506220457 | 61 | 273 | 20.0 | 29.0 | 0.00 | 0.00 | 0.00 | 77 | 1008.2 |
| 20260506220400 | 61 | 274 | 15.0 | 29.0 | 0.00 | 0.00 | 0.00 | 77 | 1008.2 |
| 20260506220303 | 61 | 275 | 16.0 | 30.0 | 0.00 | 0.00 | 0.00 | 77 | 1008.1 |
| 20260506220148 | 61 | 255 | 19.0 | 30.0 | 0.00 | 0.00 | 0.00 | 77 | 1008.0 |
| 20260506220121 | 60 | 261 | 20.0 | 30.0 | 0.00 | 0.00 | 0.00 | 77 | 1007.0 |
| 20260506220040 | 61 | 280 | 21.0 | 30.0 | 0.00 | 0.00 | 0.00 | 77 | 1007.9 |
| 20260506215943 | 61 | 255 | 22.0 | 30.0 | 0.00 | 0.00 | 0.00 | 77 | 1007.9 |
| 20260506215825 | 61 | 264 | 21.0 | 30.0 | 0.00 | 0.00 | 0.00 | 77 | 1007.8 |
| 20260506215728 | 61 | 246 | 20.0 | 30.0 | 0.00 | 0.00 | 0.00 | 77 | 1007.9 |
| 20260506215623 | 61 | 239 | 22.0 | 30.0 | 0.00 | 0.00 | 0.00 | 77 | 1007.9 |
| 20260506215503 | 61 | 251 | 24.0 | 30.0 | 0.00 | 0.00 | 0.00 | 76 | 1007.9 |
| 20260506215409 | 61 | 251 | 24.0 | 30.0 | 0.00 | 0.00 | 0.00 | 76 | 1007.7 |
| 20260506215311 | 61 | 261 | 23.0 | 29.0 | 0.00 | 0.00 | 0.00 | 76 | 1007.7 |
| 20260506215202 | 61 | 236 | 23.0 | 32.0 | 0.00 | 0.00 | 0.00 | 76 | 1007.7 |
| 20260506215102 | 61 | 264 | 19.0 | 32.0 | 0.00 | 0.00 | 0.00 | 75 | 1007.6 |
| 20260506214944 | 61 | 269 | 19.0 | 33.0 | 0.00 | 0.00 | 0.00 | 75 | 1007.7 |
| 20260506214846 | 61 | 253 | 19.0 | 33.0 | 0.00 | 0.00 | 0.00 | 75 | 1007.6 |
| 20260506214744 | 61 | 257 | 18.0 | 33.0 | 0.00 | 0.00 | 0.00 | 75 | 1007.6 |
| 20260506214647 | 61 | 259 | 19.0 | 33.0 | 0.00 | 0.00 | 0.00 | 75 | 1007.5 |
| 20260506214526 | 61 | 274 | 22.0 | 33.0 | 0.00 | 0.00 | 0.00 | 75 | 1007.6 |
| 20260506214310 | 61 | 262 | 25.0 | 33.0 | 0.00 | 0.00 | 0.00 | 74 | 1007.4 |
| 20260506214200 | 61 | 247 | 24.0 | 33.0 | 0.00 | 0.00 | 0.00 | 74 | 1007.3 |
| 20260506214059 | 61 | 228 | 20.0 | 33.0 | 0.00 | 0.00 | 0.00 | 73 | 1007.3 |
| 20260506213943 | 61 | 253 | 23.0 | 33.0 | 0.00 | 0.00 | 0.00 | 73 | 1007.2 |
| 20260506213825 | 61 | 248 | 24.0 | 33.0 | 0.00 | 0.00 | 0.00 | 72 | 1007.2 |
| 20260506213708 | 61 | 249 | 24.0 | 33.0 | 0.00 | 0.00 | 0.00 | 72 | 1007.2 |
| 20260506213621 | 61 | 261 | 22.0 | 30.0 | 0.00 | 0.00 | 0.00 | 72 | 1006.2 |
| 20260506213538 | 61 | 247 | 21.0 | 31.0 | 0.00 | 0.00 | 0.00 | 72 | 1007.2 |
| 20260506213440 | 61 | 259 | 20.0 | 31.0 | 0.00 | 0.00 | 0.00 | 72 | 1007.1 |
| 20260506213322 | 61 | 261 | 22.0 | 31.0 | 0.00 | 0.00 | 0.00 | 71 | 1007.2 |
| 20260506213223 | 61 | 232 | 23.0 | 31.0 | 0.00 | 0.00 | 0.00 | 71 | 1007.1 |
| 20260506213158 | 61 | 261 | 23.0 | 31.0 | 0.00 | 0.00 | 0.00 | 71 | 1006.1 |
| 20260506213049 | 61 | 263 | 25.0 | 31.0 | 0.00 | 0.00 | 0.00 | 71 | 1007.0 |
| 20260506212912 | 61 | 253 | 26.0 | 31.0 | 0.00 | 0.00 | 0.00 | 71 | 1006.9 |
| 20260506212815 | 62 | 248 | 24.0 | 31.0 | 0.00 | 0.00 | 0.00 | 71 | 1007.0 |
| 20260506212654 | 62 | 259 | 23.0 | 29.0 | 0.00 | 0.00 | 0.00 | 70 | 1006.9 |
| 20260506212626 | 61 | 265 | 22.0 | 29.0 | 0.00 | 0.00 | 0.00 | 70 | 1005.9 |
| 20260506212547 | 62 | 238 | 22.0 | 28.0 | 0.00 | 0.00 | 0.00 | 70 | 1006.8 |
| 20260506212435 | 62 | 253 | 22.0 | 32.0 | 0.00 | 0.00 | 0.00 | 70 | 1006.8 |
| 20260506212338 | 62 | 261 | 22.0 | 32.0 | 0.00 | 0.00 | 0.00 | 70 | 1006.8 |
| 20260506212209 | 62 | 250 | 22.0 | 32.0 | 0.00 | 0.00 | 0.00 | 70 | 1006.8 |
| 20260506212111 | 62 | 214 | 23.0 | 32.0 | 0.00 | 0.00 | 0.00 | 70 | 1006.8 |
| 20260506212013 | 62 | 242 | 21.0 | 32.0 | 0.00 | 0.00 | 0.00 | 70 | 1006.7 |
| 20260506211738 | 62 | 261 | 26.0 | 32.0 | 0.00 | 0.00 | 0.00 | 70 | 1006.6 |
| 20260506211643 | 62 | 230 | 25.0 | 33.0 | 0.00 | 0.00 | 0.00 | 69 | 1006.6 |
| 20260506211544 | 62 | 270 | 22.0 | 31.0 | 0.00 | 0.00 | 0.00 | 69 | 1006.6 |
| 20260506211521 | 61 | 238 | 21.0 | 31.0 | 0.00 | 0.00 | 0.00 | 69 | 1005.7 |
| 20260506211438 | 62 | 259 | 21.0 | 31.0 | 0.00 | 0.00 | 0.00 | 69 | 1006.6 |
| 20260506211319 | 62 | 250 | 24.0 | 31.0 | 0.00 | 0.00 | 0.00 | 69 | 1006.6 |
| 20260506211200 | 62 | 247 | 22.0 | 31.0 | 0.00 | 0.00 | 0.00 | 69 | 1006.6 |
| 20260506211059 | 62 | 251 | 20.0 | 31.0 | 0.00 | 0.00 | 0.00 | 69 | 1006.6 |
| 20260506211034 | 61 | 236 | 21.0 | 31.0 | 0.00 | 0.00 | 0.00 | 69 | 1005.6 |
| 20260506210956 | 62 | 247 | 23.0 | 31.0 | 0.00 | 0.00 | 0.00 | 69 | 1006.5 |
| 20260506210838 | 62 | 240 | 23.0 | 30.0 | 0.00 | 0.00 | 0.00 | 69 | 1006.5 |
| 20260506210740 | 62 | 251 | 22.0 | 30.0 | 0.00 | 0.00 | 0.00 | 68 | 1006.5 |
| 20260506210643 | 62 | 275 | 21.0 | 30.0 | 0.00 | 0.00 | 0.00 | 68 | 1006.4 |
| 20260506210554 | 62 | 232 | 20.0 | 30.0 | 0.00 | 0.00 | 0.00 | 68 | 1005.5 |
| 20260506210515 | 62 | 265 | 20.0 | 30.0 | 0.00 | 0.00 | 0.00 | 68 | 1006.5 |
| 20260506210417 | 62 | 253 | 20.0 | 30.0 | 0.00 | 0.00 | 0.00 | 68 | 1006.5 |
| 20260506210155 | 62 | 245 | 22.0 | 30.0 | 0.00 | 0.00 | 0.00 | 68 | 1005.4 |
| 20260506210003 | 62 | 255 | 18.0 | 29.0 | 0.00 | 0.00 | 0.00 | 68 | 1006.4 |
| 20260506205905 | 62 | 253 | 19.0 | 31.0 | 0.00 | 0.00 | 0.00 | 68 | 1006.3 |
| 20260506205747 | 62 | 253 | 19.0 | 31.0 | 0.00 | 0.00 | 0.00 | 68 | 1006.3 |
| 20260506205641 | 62 | 292 | 20.0 | 32.0 | 0.00 | 0.00 | 0.00 | 68 | 1006.3 |
| 20260506205540 | 62 | 236 | 22.0 | 32.0 | 0.00 | 0.00 | 0.00 | 67 | 1006.2 |
| 20260506205444 | 62 | 253 | 22.0 | 32.0 | 0.00 | 0.00 | 0.00 | 67 | 1006.3 |
| 20260506205352 | 63 | 271 | 21.0 | 32.0 | 0.00 | 0.00 | 0.00 | 67 | 1006.3 |
| 20260506205244 | 63 | 247 | 25.0 | 32.0 | 0.00 | 0.00 | 0.00 | 67 | 1006.2 |
| 20260506205126 | 63 | 245 | 22.0 | 32.0 | 0.00 | 0.00 | 0.00 | 67 | 1006.2 |
| 20260506205027 | 63 | 245 | 22.0 | 32.0 | 0.00 | 0.00 | 0.00 | 67 | 1006.2 |
| 20260506204930 | 63 | 232 | 21.0 | 32.0 | 0.00 | 0.00 | 0.00 | 67 | 1006.2 |
| 20260506204822 | 63 | 252 | 19.0 | 28.0 | 0.00 | 0.00 | 0.00 | 67 | 1006.2 |
| 20260506204729 | 63 | 213 | 18.0 | 28.0 | 0.00 | 0.00 | 0.00 | 67 | 1006.2 |
| 20260506204633 | 63 | 253 | 18.0 | 28.0 | 0.00 | 0.00 | 0.00 | 66 | 1006.2 |
| 20260506204534 | 62 | 252 | 19.0 | 28.0 | 0.00 | 0.00 | 0.00 | 66 | 1005.1 |
| 20260506204313 | 63 | 232 | 20.0 | 27.0 | 0.00 | 0.00 | 0.00 | 66 | 1006.1 |
| 20260506204215 | 63 | 261 | 20.0 | 26.0 | 0.00 | 0.00 | 0.00 | 66 | 1006.1 |
| 20260506204117 | 63 | 254 | 20.0 | 26.0 | 0.00 | 0.00 | 0.00 | 65 | 1006.0 |
| 20260506204028 | 63 | 243 | 19.0 | 24.0 | 0.00 | 0.00 | 0.00 | 65 | 1005.0 |
| 20260506203949 | 64 | 265 | 19.0 | 24.0 | 0.00 | 0.00 | 0.00 | 65 | 1006.0 |
| 20260506203813 | 64 | 255 | 18.0 | 28.0 | 0.00 | 0.00 | 0.00 | 64 | 1006.0 |
| 20260506203715 | 64 | 213 | 16.0 | 28.0 | 0.00 | 0.00 | 0.00 | 64 | 1006.0 |
| 20260506203615 | 64 | 249 | 17.0 | 32.0 | 0.00 | 0.00 | 0.00 | 63 | 1006.0 |
| 20260506203525 | 64 | 216 | 16.0 | 32.0 | 0.00 | 0.00 | 0.00 | 63 | 1005.0 |
| 20260506203449 | 64 | 250 | 17.0 | 32.0 | 0.00 | 0.00 | 0.00 | 63 | 1006.0 |
| 20260506203331 | 64 | 240 | 15.0 | 32.0 | 0.00 | 0.00 | 0.00 | 62 | 1006.1 |
| 20260506203233 | 65 | 250 | 16.0 | 32.0 | 0.00 | 0.00 | 0.00 | 62 | 1006.0 |
| 20260506203152 | 64 | 236 | 17.0 | 32.0 | 0.00 | 0.00 | 0.00 | 62 | 1004.9 |
| 20260506203108 | 65 | 253 | 19.0 | 32.0 | 0.00 | 0.00 | 0.00 | 62 | 1005.9 |
| 20260506203009 | 65 | 265 | 22.0 | 32.0 | 0.00 | 0.00 | 0.00 | 61 | 1005.9 |
| 20260506202911 | 65 | 272 | 24.0 | 32.0 | 0.00 | 0.00 | 0.00 | 61 | 1005.9 |
| 20260506202804 | 65 | 264 | 22.0 | 32.0 | 0.00 | 0.00 | 0.00 | 60 | 1005.8 |
| 20260506202706 | 66 | 259 | 24.0 | 31.0 | 0.00 | 0.00 | 0.00 | 58 | 1005.8 |
| 20260506202546 | 66 | 268 | 22.0 | 31.0 | 0.00 | 0.00 | 0.00 | 58 | 1005.7 |
| 20260506202427 | 67 | 259 | 23.0 | 31.0 | 0.00 | 0.00 | 0.00 | 57 | 1005.7 |
| 20260506202324 | 67 | 264 | 25.0 | 31.0 | 0.00 | 0.00 | 0.00 | 56 | 1005.6 |
| 20260506202226 | 67 | 274 | 22.0 | 30.0 | 0.00 | 0.00 | 0.00 | 53 | 1005.5 |
| 20260506202127 | 68 | 268 | 16.0 | 28.0 | 0.00 | 0.00 | 0.00 | 53 | 1005.5 |
| 20260506202007 | 68 | 268 | 16.0 | 22.0 | 0.00 | 0.00 | 0.00 | 52 | 1005.5 |
| 20260506201859 | 68 | 255 | 16.0 | 22.0 | 0.00 | 0.00 | 0.00 | 52 | 1005.3 |
| 20260506201801 | 68 | 270 | 15.0 | 22.0 | 0.00 | 0.00 | 0.00 | 52 | 1005.3 |
| 20260506201648 | 68 | 261 | 16.0 | 22.0 | 0.00 | 0.00 | 0.00 | 52 | 1005.3 |
| 20260506201549 | 68 | 280 | 16.0 | 22.0 | 0.00 | 0.00 | 0.00 | 51 | 1005.3 |
| 20260506201506 | 68 | 270 | 15.0 | 22.0 | 0.00 | 0.00 | 0.00 | 51 | 1004.3 |
| 20260506201422 | 68 | 270 | 16.0 | 21.0 | 0.00 | 0.00 | 0.00 | 51 | 1005.3 |
| 20260506201304 | 68 | 249 | 14.0 | 21.0 | 0.00 | 0.00 | 0.00 | 51 | 1005.3 |
| 20260506201205 | 68 | 272 | 10.0 | 16.0 | 0.00 | 0.00 | 0.00 | 51 | 1005.3 |
| 20260506201110 | 68 | 254 | 10.0 | 13.0 | 0.00 | 0.00 | 0.00 | 52 | 1005.3 |
| 20260506201041 | 68 | 269 | 9.0 | 12.0 | 0.00 | 0.00 | 0.00 | 52 | 1004.3 |
| 20260506201001 | 68 | 280 | 9.0 | 13.0 | 0.00 | 0.00 | 0.00 | 52 | 1005.2 |
| 20260506200905 | 68 | 273 | 7.0 | 12.0 | 0.00 | 0.00 | 0.00 | 51 | 1005.1 |
| 20260506200747 | 68 | 255 | 6.0 | 12.0 | 0.00 | 0.00 | 0.00 | 52 | 1005.0 |
| 20260506200648 | 68 | 236 | 7.0 | 12.0 | 0.00 | 0.00 | 0.00 | 51 | 1005.0 |
| 20260506200614 | 68 | 236 | 6.0 | 12.0 | 0.00 | 0.00 | 0.00 | 51 | 1004.0 |
| 20260506200539 | 68 | 250 | 5.0 | 12.0 | 0.00 | 0.00 | 0.00 | 52 | 1004.9 |
| 20260506200441 | 68 | 228 | 5.0 | 12.0 | 0.00 | 0.00 | 0.00 | 52 | 1004.9 |
| 20260506200344 | 68 | 231 | 8.0 | 12.0 | 0.00 | 0.00 | 0.00 | 51 | 1004.9 |
| 20260506200229 | 68 | 226 | 9.0 | 13.0 | 0.00 | 0.00 | 0.00 | 51 | 1004.8 |
| 20260506200155 | 68 | 243 | 7.0 | 12.0 | 0.00 | 0.00 | 0.00 | 52 | 1003.8 |
| 20260506200122 | 68 | 220 | 7.0 | 10.0 | 0.00 | 0.00 | 0.00 | 52 | 1004.8 |
| 20260506200022 | 68 | 239 | 5.0 | 10.0 | 0.00 | 0.00 | 0.00 | 52 | 1004.7 |
| 20260506195903 | 69 | 230 | 6.0 | 10.0 | 0.00 | 0.00 | 0.00 | 52 | 1004.7 |
| 20260506195745 | 69 | 228 | 6.0 | 10.0 | 0.00 | 0.00 | 0.00 | 52 | 1004.7 |
| 20260506195637 | 69 | 226 | 7.0 | 10.0 | 0.00 | 0.00 | 0.00 | 52 | 1004.7 |
| 20260506195537 | 69 | 212 | 7.0 | 10.0 | 0.00 | 0.00 | 0.00 | 51 | 1004.6 |
| 20260506195423 | 69 | 224 | 6.0 | 10.0 | 0.00 | 0.00 | 0.00 | 51 | 1004.6 |
| 20260506195326 | 69 | 228 | 6.0 | 10.0 | 0.00 | 0.00 | 0.00 | 51 | 1004.6 |
| 20260506195217 | 69 | 207 | 7.0 | 10.0 | 0.00 | 0.00 | 0.00 | 51 | 1004.6 |
| 20260506195120 | 69 | 211 | 6.0 | 10.0 | 0.00 | 0.00 | 0.00 | 51 | 1004.6 |
| 20260506195021 | 69 | 207 | 7.0 | 12.0 | 0.00 | 0.00 | 0.00 | 51 | 1004.5 |
| 20260506194924 | 69 | 220 | 7.0 | 12.0 | 0.00 | 0.00 | 0.00 | 51 | 1004.5 |
| 20260506194822 | 69 | 233 | 7.0 | 12.0 | 0.00 | 0.00 | 0.00 | 51 | 1004.5 |
| 20260506194724 | 69 | 221 | 7.0 | 12.0 | 0.00 | 0.00 | 0.00 | 51 | 1004.5 |
| 20260506194629 | 69 | 218 | 7.0 | 12.0 | 0.00 | 0.00 | 0.00 | 51 | 1004.5 |
| 20260506194529 | 69 | 227 | 7.0 | 12.0 | 0.00 | 0.00 | 0.00 | 51 | 1004.5 |
| 20260506194400 | 69 | 236 | 8.0 | 12.0 | 0.00 | 0.00 | 0.00 | 51 | 1004.5 |
| 20260506194303 | 69 | 237 | 8.0 | 12.0 | 0.00 | 0.00 | 0.00 | 51 | 1004.5 |
| 20260506194159 | 69 | 225 | 8.0 | 12.0 | 0.00 | 0.00 | 0.00 | 51 | 1004.5 |
| 20260506194107 | 69 | 202 | 8.0 | 11.0 | 0.00 | 0.00 | 0.00 | 51 | 1004.5 |
| 20260506194009 | 69 | 221 | 8.0 | 12.0 | 0.00 | 0.00 | 0.00 | 51 | 1004.5 |
| 20260506193903 | 69 | 191 | 8.0 | 12.0 | 0.00 | 0.00 | 0.00 | 51 | 1004.5 |
| 20260506193805 | 69 | 213 | 8.0 | 12.0 | 0.00 | 0.00 | 0.00 | 51 | 1004.5 |
| 20260506193608 | 69 | 226 | 8.0 | 12.0 | 0.00 | 0.00 | 0.00 | 51 | 1003.5 |
| 20260506193528 | 69 | 212 | 8.0 | 14.0 | 0.00 | 0.00 | 0.00 | 50 | 1004.6 |
| 20260506193430 | 69 | 224 | 8.0 | 14.0 | 0.00 | 0.00 | 0.00 | 50 | 1004.6 |
| 20260506193315 | 69 | 236 | 8.0 | 14.0 | 0.00 | 0.00 | 0.00 | 50 | 1004.6 |
| 20260506193217 | 69 | 216 | 7.0 | 14.0 | 0.00 | 0.00 | 0.00 | 50 | 1004.6 |
| 20260506193145 | 69 | 238 | 5.0 | 14.0 | 0.00 | 0.00 | 0.00 | 50 | 1003.4 |
| 20260506193111 | 69 | 220 | 5.0 | 14.0 | 0.00 | 0.00 | 0.00 | 50 | 1004.5 |
| 20260506193011 | 69 | 218 | 6.0 | 14.0 | 0.00 | 0.00 | 0.00 | 50 | 1004.5 |
| 20260506192915 | 69 | 224 | 7.0 | 14.0 | 0.00 | 0.00 | 0.00 | 50 | 1004.4 |
| 20260506192818 | 69 | 216 | 9.0 | 14.0 | 0.00 | 0.00 | 0.00 | 50 | 1004.4 |
| 20260506192716 | 69 | 267 | 9.0 | 14.0 | 0.00 | 0.00 | 0.00 | 50 | 1004.4 |
| 20260506192619 | 69 | 217 | 8.0 | 12.0 | 0.00 | 0.00 | 0.00 | 50 | 1004.4 |
| 20260506192458 | 69 | 216 | 5.0 | 12.0 | 0.00 | 0.00 | 0.00 | 50 | 1004.3 |
| 20260506192333 | 69 | 213 | 7.0 | 12.0 | 0.00 | 0.00 | 0.00 | 49 | 1004.4 |
| 20260506192235 | 69 | 222 | 8.0 | 12.0 | 0.00 | 0.00 | 0.00 | 49 | 1004.3 |
| 20260506192136 | 69 | 226 | 8.0 | 14.0 | 0.00 | 0.00 | 0.00 | 49 | 1004.2 |
| 20260506192105 | 69 | 241 | 8.0 | 14.0 | 0.00 | 0.00 | 0.00 | 49 | 1003.2 |
| 20260506192031 | 69 | 227 | 10.0 | 14.0 | 0.00 | 0.00 | 0.00 | 49 | 1004.2 |
| 20260506191934 | 69 | 219 | 9.0 | 12.0 | 0.00 | 0.00 | 0.00 | 49 | 1004.2 |
| 20260506191835 | 69 | 199 | 8.0 | 14.0 | 0.00 | 0.00 | 0.00 | 49 | 1004.2 |
| 20260506191738 | 70 | 205 | 8.0 | 14.0 | 0.00 | 0.00 | 0.00 | 49 | 1004.2 |
| 20260506191632 | 70 | 211 | 7.0 | 16.0 | 0.00 | 0.00 | 0.00 | 49 | 1004.2 |
| 20260506191511 | 70 | 225 | 9.0 | 16.0 | 0.00 | 0.00 | 0.00 | 49 | 1004.2 |
| 20260506191414 | 70 | 236 | 9.0 | 16.0 | 0.00 | 0.00 | 0.00 | 49 | 1004.2 |
| 20260506191319 | 70 | 210 | 8.0 | 16.0 | 0.00 | 0.00 | 0.00 | 48 | 1004.2 |
| 20260506191211 | 70 | 235 | 8.0 | 16.0 | 0.00 | 0.00 | 0.00 | 48 | 1004.2 |
| 20260506191114 | 69 | 228 | 10.0 | 16.0 | 0.00 | 0.00 | 0.00 | 48 | 1004.1 |
| 20260506191014 | 69 | 217 | 11.0 | 16.0 | 0.00 | 0.00 | 0.00 | 49 | 1004.1 |
| 20260506190916 | 69 | 255 | 10.0 | 16.0 | 0.00 | 0.00 | 0.00 | 48 | 1004.0 |
| 20260506190810 | 69 | 253 | 9.0 | 16.0 | 0.00 | 0.00 | 0.00 | 49 | 1004.0 |
| 20260506190717 | 69 | 211 | 7.0 | 16.0 | 0.00 | 0.00 | 0.00 | 49 | 1004.0 |
| 20260506190618 | 69 | 263 | 7.0 | 16.0 | 0.00 | 0.00 | 0.00 | 49 | 1003.9 |
| 20260506190501 | 69 | 228 | 8.0 | 16.0 | 0.00 | 0.00 | 0.00 | 48 | 1003.9 |
| 20260506190353 | 69 | 249 | 9.0 | 14.0 | 0.00 | 0.00 | 0.00 | 49 | 1003.9 |
| 20260506190255 | 69 | 240 | 8.0 | 14.0 | 0.00 | 0.00 | 0.00 | 49 | 1003.9 |
| 20260506190157 | 69 | 234 | 7.0 | 12.0 | 0.00 | 0.00 | 0.00 | 49 | 1003.8 |
| 20260506190116 | 69 | 250 | 5.0 | 11.0 | 0.00 | 0.00 | 0.00 | 49 | 1002.7 |
| 20260506190034 | 69 | 259 | 5.0 | 11.0 | 0.00 | 0.00 | 0.00 | 49 | 1003.7 |
| 20260506185937 | 69 | 238 | 5.0 | 11.0 | 0.00 | 0.00 | 0.00 | 49 | 1003.7 |
| 20260506185840 | 69 | 226 | 5.0 | 11.0 | 0.00 | 0.00 | 0.00 | 49 | 1003.7 |
| 20260506185743 | 69 | 236 | 7.0 | 11.0 | 0.00 | 0.00 | 0.00 | 49 | 1003.7 |
| 20260506185637 | 69 | 257 | 5.0 | 11.0 | 0.00 | 0.00 | 0.00 | 49 | 1003.8 |
| 20260506185517 | 69 | 224 | 5.0 | 11.0 | 0.00 | 0.00 | 0.00 | 49 | 1003.7 |
| 20260506185420 | 69 | 201 | 6.0 | 12.0 | 0.00 | 0.00 | 0.00 | 49 | 1003.7 |
| 20260506185326 | 69 | 245 | 6.0 | 12.0 | 0.00 | 0.00 | 0.00 | 49 | 1003.7 |
| 20260506185218 | 69 | 225 | 7.0 | 12.0 | 0.00 | 0.00 | 0.00 | 49 | 1003.7 |
| 20260506185121 | 69 | 239 | 8.0 | 12.0 | 0.00 | 0.00 | 0.00 | 49 | 1003.7 |
| 20260506185022 | 69 | 246 | 6.0 | 12.0 | 0.00 | 0.00 | 0.00 | 49 | 1003.7 |
| 20260506184916 | 69 | 222 | 6.0 | 12.0 | 0.00 | 0.00 | 0.00 | 49 | 1003.6 |
| 20260506184819 | 69 | 220 | 6.0 | 12.0 | 0.00 | 0.00 | 0.00 | 49 | 1003.6 |
| 20260506184726 | 69 | 222 | 8.0 | 12.0 | 0.00 | 0.00 | 0.00 | 49 | 1003.6 |
| 20260506184535 | 69 | 225 | 6.0 | 14.0 | 0.00 | 0.00 | 0.00 | 49 | 1002.5 |
| 20260506184450 | 69 | 229 | 6.0 | 14.0 | 0.00 | 0.00 | 0.00 | 50 | 1003.5 |
| 20260506184354 | 69 | 229 | 5.0 | 14.0 | 0.00 | 0.00 | 0.00 | 49 | 1003.5 |
| 20260506184257 | 69 | 216 | 6.0 | 14.0 | 0.00 | 0.00 | 0.00 | 50 | 1003.5 |
| 20260506184157 | 69 | 196 | 6.0 | 14.0 | 0.00 | 0.00 | 0.00 | 49 | 1003.5 |
| 20260506184127 | 69 | 220 | 5.0 | 14.0 | 0.00 | 0.00 | 0.00 | 50 | 1002.4 |
| 20260506184049 | 69 | 218 | 6.0 | 14.0 | 0.00 | 0.00 | 0.00 | 50 | 1003.4 |
| 20260506183937 | 69 | 218 | 8.0 | 14.0 | 0.00 | 0.00 | 0.00 | 49 | 1003.5 |
| 20260506183840 | 69 | 237 | 9.0 | 14.0 | 0.00 | 0.00 | 0.00 | 49 | 1003.5 |
| 20260506183733 | 69 | 236 | 8.0 | 14.0 | 0.00 | 0.00 | 0.00 | 49 | 1003.5 |
| 20260506183635 | 69 | 243 | 7.0 | 12.0 | 0.00 | 0.00 | 0.00 | 49 | 1003.5 |
| 20260506183536 | 69 | 209 | 6.0 | 11.0 | 0.00 | 0.00 | 0.00 | 49 | 1003.5 |
| 20260506183503 | 69 | 222 | 5.0 | 9.0 | 0.00 | 0.00 | 0.00 | 49 | 1002.4 |
| 20260506183428 | 69 | 209 | 4.0 | 8.0 | 0.00 | 0.00 | 0.00 | 49 | 1003.5 |
| 20260506183314 | 70 | 195 | 4.0 | 8.0 | 0.00 | 0.00 | 0.00 | 49 | 1003.5 |
| 20260506183215 | 70 | 219 | 4.0 | 6.0 | 0.00 | 0.00 | 0.00 | 49 | 1003.5 |
| 20260506183119 | 70 | 208 | 4.0 | 6.0 | 0.00 | 0.00 | 0.00 | 48 | 1003.5 |
| 20260506183021 | 70 | 219 | 3.0 | 6.0 | 0.00 | 0.00 | 0.00 | 49 | 1003.5 |
| 20260506182747 | 70 | 191 | 3.0 | 6.0 | 0.00 | 0.00 | 0.00 | 49 | 1003.4 |
| 20260506182649 | 70 | 211 | 3.0 | 6.0 | 0.00 | 0.00 | 0.00 | 49 | 1003.4 |
| 20260506182553 | 70 | 213 | 4.0 | 6.0 | 0.00 | 0.00 | 0.00 | 48 | 1003.4 |
| 20260506182532 | 70 | 217 | 3.0 | 6.0 | 0.00 | 0.00 | 0.00 | 48 | 1002.3 |
| 20260506182447 | 71 | 226 | 3.0 | 5.0 | 0.00 | 0.00 | 0.00 | 48 | 1003.4 |
| 20260506182331 | 71 | 227 | 2.0 | 5.0 | 0.00 | 0.00 | 0.00 | 47 | 1003.4 |
| 20260506182221 | 71 | 209 | 1.0 | 4.0 | 0.00 | 0.00 | 0.00 | 47 | 1003.4 |
| 20260506182100 | 71 | 209 | 1.0 | 4.0 | 0.00 | 0.00 | 0.00 | 47 | 1003.4 |
| 20260506181941 | 71 | 209 | 0.0 | 4.0 | 0.00 | 0.00 | 0.00 | 47 | 1003.4 |
| 20260506181849 | 71 | 209 | 0.0 | 4.0 | 0.00 | 0.00 | 0.00 | 47 | 1003.4 |
| 20260506181743 | 71 | 209 | 1.0 | 4.0 | 0.00 | 0.00 | 0.00 | 47 | 1003.3 |
| 20260506181624 | 71 | 209 | 2.0 | 4.0 | 0.00 | 0.00 | 0.00 | 47 | 1003.4 |
| 20260506181524 | 71 | 209 | 2.0 | 3.0 | 0.00 | 0.00 | 0.00 | 47 | 1003.5 |
| 20260506181428 | 71 | 209 | 1.0 | 3.0 | 0.00 | 0.00 | 0.00 | 47 | 1003.4 |
| 20260506181322 | 71 | 209 | 1.0 | 3.0 | 0.00 | 0.00 | 0.00 | 47 | 1003.4 |
| 20260506181036 | 71 | 209 | 1.0 | 4.0 | 0.00 | 0.00 | 0.00 | 46 | 1003.3 |
| 20260506180939 | 71 | 209 | 1.0 | 4.0 | 0.00 | 0.00 | 0.00 | 46 | 1003.3 |
| 20260506180833 | 71 | 209 | 1.0 | 4.0 | 0.00 | 0.00 | 0.00 | 46 | 1003.3 |
| 20260506180734 | 72 | 209 | 1.0 | 5.0 | 0.00 | 0.00 | 0.00 | 46 | 1003.3 |
| 20260506180637 | 72 | 209 | 2.0 | 5.0 | 0.00 | 0.00 | 0.00 | 46 | 1003.2 |
| 20260506180538 | 72 | 209 | 3.0 | 6.0 | 0.00 | 0.00 | 0.00 | 46 | 1003.3 |
| 20260506180513 | 71 | 209 | 2.0 | 6.0 | 0.00 | 0.00 | 0.00 | 46 | 1002.2 |
| 20260506180431 | 72 | 216 | 3.0 | 6.0 | 0.00 | 0.00 | 0.00 | 46 | 1003.2 |
| 20260506180318 | 72 | 217 | 1.0 | 6.0 | 0.00 | 0.00 | 0.00 | 46 | 1003.2 |
| 20260506180219 | 72 | 193 | 1.0 | 6.0 | 0.00 | 0.00 | 0.00 | 46 | 1003.2 |
| 20260506180122 | 72 | 188 | 1.0 | 6.0 | 0.00 | 0.00 | 0.00 | 46 | 1003.2 |
| 20260506180053 | 71 | 188 | 1.0 | 6.0 | 0.00 | 0.00 | 0.00 | 46 | 1002.0 |
| 20260506180014 | 72 | 188 | 2.0 | 6.0 | 0.00 | 0.00 | 0.00 | 45 | 1003.1 |
| 20260506175918 | 72 | 195 | 3.0 | 10.0 | 0.00 | 0.00 | 0.00 | 45 | 1003.2 |
| 20260506175818 | 72 | 197 | 2.0 | 10.0 | 0.00 | 0.00 | 0.00 | 45 | 1003.1 |
| 20260506175725 | 72 | 213 | 2.0 | 10.0 | 0.00 | 0.00 | 0.00 | 45 | 1003.1 |
| 20260506175656 | 72 | 198 | 2.0 | 10.0 | 0.00 | 0.00 | 0.00 | 45 | 1002.0 |
| 20260506175616 | 72 | 189 | 4.0 | 10.0 | 0.00 | 0.00 | 0.00 | 45 | 1003.2 |
| 20260506175458 | 72 | 193 | 4.0 | 10.0 | 0.00 | 0.00 | 0.00 | 45 | 1003.1 |
| 20260506175338 | 72 | 199 | 4.0 | 10.0 | 0.00 | 0.00 | 0.00 | 45 | 1003.2 |
| 20260506175239 | 72 | 205 | 5.0 | 10.0 | 0.00 | 0.00 | 0.00 | 45 | 1003.2 |
| 20260506175155 | 72 | 196 | 5.0 | 10.0 | 0.00 | 0.00 | 0.00 | 44 | 1002.0 |
| 20260506175110 | 72 | 190 | 5.0 | 10.0 | 0.00 | 0.00 | 0.00 | 45 | 1003.1 |
| 20260506175011 | 72 | 230 | 4.0 | 9.0 | 0.00 | 0.00 | 0.00 | 45 | 1003.1 |
| 20260506174918 | 72 | 207 | 4.0 | 9.0 | 0.00 | 0.00 | 0.00 | 45 | 1003.1 |
| 20260506174820 | 72 | 181 | 4.0 | 9.0 | 0.00 | 0.00 | 0.00 | 45 | 1003.2 |
| 20260506174714 | 72 | 187 | 4.0 | 7.0 | 0.00 | 0.00 | 0.00 | 45 | 1003.1 |
| 20260506174532 | 73 | 197 | 3.0 | 7.0 | 0.00 | 0.00 | 0.00 | 45 | 1003.0 |
| 20260506174435 | 73 | 186 | 3.0 | 6.0 | 0.00 | 0.00 | 0.00 | 45 | 1003.0 |
| 20260506174306 | 73 | 182 | 2.0 | 5.0 | 0.00 | 0.00 | 0.00 | 45 | 1003.0 |
| 20260506174211 | 73 | 195 | 2.0 | 6.0 | 0.00 | 0.00 | 0.00 | 45 | 1003.0 |
| 20260506174115 | 73 | 192 | 2.0 | 6.0 | 0.00 | 0.00 | 0.00 | 45 | 1003.0 |
| 20260506174016 | 73 | 205 | 2.0 | 6.0 | 0.00 | 0.00 | 0.00 | 45 | 1003.0 |
| 20260506173907 | 73 | 214 | 3.0 | 6.0 | 0.00 | 0.00 | 0.00 | 45 | 1003.0 |
| 20260506173808 | 73 | 199 | 3.0 | 6.0 | 0.00 | 0.00 | 0.00 | 45 | 1003.0 |
| 20260506173709 | 73 | 185 | 3.0 | 6.0 | 0.00 | 0.00 | 0.00 | 45 | 1003.0 |
| 20260506173613 | 73 | 197 | 3.0 | 6.0 | 0.00 | 0.00 | 0.00 | 45 | 1002.9 |
| 20260506173544 | 72 | 180 | 3.0 | 6.0 | 0.00 | 0.00 | 0.00 | 45 | 1001.8 |
| 20260506173509 | 73 | 191 | 4.0 | 6.0 | 0.00 | 0.00 | 0.00 | 45 | 1002.9 |
| 20260506173351 | 73 | 199 | 3.0 | 6.0 | 0.00 | 0.00 | 0.00 | 45 | 1002.9 |
| 20260506173254 | 73 | 184 | 3.0 | 8.0 | 0.00 | 0.00 | 0.00 | 45 | 1002.9 |
| 20260506173157 | 73 | 161 | 3.0 | 11.0 | 0.00 | 0.00 | 0.00 | 44 | 1002.9 |
| 20260506173130 | 72 | 180 | 3.0 | 11.0 | 0.00 | 0.00 | 0.00 | 44 | 1001.8 |
| 20260506173048 | 73 | 190 | 3.0 | 11.0 | 0.00 | 0.00 | 0.00 | 44 | 1002.8 |
| 20260506172949 | 73 | 178 | 3.0 | 11.0 | 0.00 | 0.00 | 0.00 | 44 | 1002.9 |
| 20260506172856 | 73 | 189 | 4.0 | 11.0 | 0.00 | 0.00 | 0.00 | 45 | 1002.9 |
| 20260506172758 | 73 | 192 | 4.0 | 11.0 | 0.00 | 0.00 | 0.00 | 44 | 1002.9 |
| 20260506172700 | 73 | 202 | 3.0 | 11.0 | 0.00 | 0.00 | 0.00 | 44 | 1002.9 |
| 20260506172634 | 73 | 175 | 3.0 | 11.0 | 0.00 | 0.00 | 0.00 | 44 | 1001.8 |
| 20260506172552 | 73 | 195 | 4.0 | 11.0 | 0.00 | 0.00 | 0.00 | 44 | 1002.9 |
| 20260506172454 | 73 | 212 | 4.0 | 11.0 | 0.00 | 0.00 | 0.00 | 44 | 1002.8 |
| 20260506172357 | 73 | 145 | 4.0 | 11.0 | 0.00 | 0.00 | 0.00 | 44 | 1002.9 |
| 20260506172235 | 73 | 193 | 2.0 | 6.0 | 0.00 | 0.00 | 0.00 | 44 | 1002.9 |
| 20260506172136 | 73 | 178 | 2.0 | 6.0 | 0.00 | 0.00 | 0.00 | 44 | 1002.9 |
| 20260506172016 | 73 | 198 | 3.0 | 6.0 | 0.00 | 0.00 | 0.00 | 44 | 1002.9 |
| 20260506171910 | 73 | 185 | 3.0 | 6.0 | 0.00 | 0.00 | 0.00 | 44 | 1002.9 |
| 20260506171752 | 74 | 207 | 2.0 | 7.0 | 0.00 | 0.00 | 0.00 | 44 | 1002.9 |
| 20260506171655 | 74 | 175 | 2.0 | 7.0 | 0.00 | 0.00 | 0.00 | 44 | 1002.9 |
| 20260506171556 | 74 | 201 | 3.0 | 7.0 | 0.00 | 0.00 | 0.00 | 44 | 1002.9 |
| 20260506171505 | 73 | 207 | 2.0 | 7.0 | 0.00 | 0.00 | 0.00 | 44 | 1001.8 |
| 20260506171433 | 74 | 207 | 3.0 | 7.0 | 0.00 | 0.00 | 0.00 | 44 | 1003.0 |
| 20260506171335 | 74 | 159 | 3.0 | 7.0 | 0.00 | 0.00 | 0.00 | 43 | 1003.0 |
| 20260506171236 | 74 | 185 | 3.0 | 7.0 | 0.00 | 0.00 | 0.00 | 43 | 1003.0 |
| 20260506171139 | 74 | 194 | 4.0 | 7.0 | 0.00 | 0.00 | 0.00 | 44 | 1003.0 |
| 20260506171111 | 73 | 190 | 4.0 | 7.0 | 0.00 | 0.00 | 0.00 | 44 | 1001.9 |
| 20260506171031 | 74 | 173 | 4.0 | 7.0 | 0.00 | 0.00 | 0.00 | 43 | 1003.0 |
| 20260506170913 | 74 | 186 | 3.0 | 7.0 | 0.00 | 0.00 | 0.00 | 43 | 1003.0 |
| 20260506170819 | 74 | 197 | 2.0 | 7.0 | 0.00 | 0.00 | 0.00 | 43 | 1003.0 |
| 20260506170702 | 74 | 182 | 3.0 | 7.0 | 0.00 | 0.00 | 0.00 | 43 | 1003.0 |
| 20260506170632 | 73 | 181 | 3.0 | 7.0 | 0.00 | 0.00 | 0.00 | 43 | 1001.9 |
| 20260506170554 | 74 | 199 | 3.0 | 7.0 | 0.00 | 0.00 | 0.00 | 43 | 1003.0 |
| 20260506170457 | 74 | 202 | 3.0 | 6.0 | 0.00 | 0.00 | 0.00 | 43 | 1003.0 |
| 20260506170218 | 74 | 194 | 3.0 | 9.0 | 0.00 | 0.00 | 0.00 | 43 | 1003.0 |
| 20260506170121 | 74 | 130 | 2.0 | 9.0 | 0.00 | 0.00 | 0.00 | 43 | 1003.0 |
| 20260506170026 | 74 | 147 | 3.0 | 9.0 | 0.00 | 0.00 | 0.00 | 43 | 1003.0 |
| 20260506165928 | 74 | 187 | 3.0 | 9.0 | 0.00 | 0.00 | 0.00 | 42 | 1003.1 |
| 20260506165830 | 74 | 154 | 3.0 | 9.0 | 0.00 | 0.00 | 0.00 | 43 | 1003.1 |
| 20260506165642 | 74 | 175 | 3.0 | 9.0 | 0.00 | 0.00 | 0.00 | 43 | 1003.1 |
| 20260506165543 | 74 | 184 | 3.0 | 7.0 | 0.00 | 0.00 | 0.00 | 42 | 1003.1 |
| 20260506165425 | 74 | 141 | 3.0 | 7.0 | 0.00 | 0.00 | 0.00 | 42 | 1003.0 |
| 20260506165319 | 74 | 191 | 3.0 | 7.0 | 0.00 | 0.00 | 0.00 | 42 | 1003.2 |
| 20260506165202 | 74 | 178 | 3.0 | 7.0 | 0.00 | 0.00 | 0.00 | 42 | 1003.2 |
| 20260506165106 | 75 | 193 | 3.0 | 7.0 | 0.00 | 0.00 | 0.00 | 42 | 1003.2 |
| 20260506165006 | 75 | 189 | 3.0 | 9.0 | 0.00 | 0.00 | 0.00 | 42 | 1003.0 |
| 20260506164858 | 75 | 220 | 3.0 | 9.0 | 0.00 | 0.00 | 0.00 | 42 | 1003.1 |
| 20260506164800 | 75 | 172 | 3.0 | 9.0 | 0.00 | 0.00 | 0.00 | 43 | 1003.1 |
| 20260506164700 | 75 | 152 | 4.0 | 9.0 | 0.00 | 0.00 | 0.00 | 42 | 1003.0 |
| 20260506164543 | 75 | 222 | 4.0 | 9.0 | 0.00 | 0.00 | 0.00 | 42 | 1003.2 |
| 20260506164516 | 74 | 213 | 4.0 | 9.0 | 0.00 | 0.00 | 0.00 | 41 | 1002.1 |
| 20260506164437 | 75 | 199 | 4.0 | 9.0 | 0.00 | 0.00 | 0.00 | 42 | 1003.1 |
| 20260506164339 | 75 | 199 | 4.0 | 9.0 | 0.00 | 0.00 | 0.00 | 42 | 1003.2 |
| 20260506164220 | 75 | 161 | 4.0 | 9.0 | 0.00 | 0.00 | 0.00 | 42 | 1003.2 |
| 20260506164120 | 75 | 126 | 4.0 | 10.0 | 0.00 | 0.00 | 0.00 | 41 | 1003.1 |
| 20260506164034 | 75 | 130 | 3.0 | 10.0 | 0.00 | 0.00 | 0.00 | 41 | 1002.0 |
| 20260506163931 | 75 | 196 | 3.0 | 10.0 | 0.00 | 0.00 | 0.00 | 42 | 1003.2 |
| 20260506163835 | 75 | 156 | 2.0 | 10.0 | 0.00 | 0.00 | 0.00 | 42 | 1003.1 |
| 20260506163743 | 75 | 156 | 3.0 | 10.0 | 0.00 | 0.00 | 0.00 | 42 | 1003.1 |
| 20260506163646 | 75 | 186 | 3.0 | 10.0 | 0.00 | 0.00 | 0.00 | 42 | 1003.1 |
| 20260506163549 | 75 | 193 | 3.0 | 10.0 | 0.00 | 0.00 | 0.00 | 41 | 1002.1 |
| 20260506163517 | 75 | 166 | 5.0 | 10.0 | 0.00 | 0.00 | 0.00 | 40 | 1003.2 |
| 20260506163359 | 75 | 134 | 4.0 | 11.0 | 0.00 | 0.00 | 0.00 | 41 | 1003.1 |
| 20260506163301 | 75 | 213 | 3.0 | 9.0 | 0.00 | 0.00 | 0.00 | 42 | 1003.1 |
| 20260506163202 | 75 | 194 | 4.0 | 9.0 | 0.00 | 0.00 | 0.00 | 42 | 1003.2 |
| 20260506163107 | 76 | 139 | 3.0 | 9.0 | 0.00 | 0.00 | 0.00 | 42 | 1003.2 |
| 20260506163030 | 75 | 222 | 3.0 | 9.0 | 0.00 | 0.00 | 0.00 | 42 | 1002.1 |
| 20260506162932 | 76 | 202 | 3.0 | 9.0 | 0.00 | 0.00 | 0.00 | 42 | 1003.1 |
| 20260506162836 | 76 | 197 | 4.0 | 9.0 | 0.00 | 0.00 | 0.00 | 41 | 1003.2 |
| 20260506162739 | 76 | 217 | 5.0 | 9.0 | 0.00 | 0.00 | 0.00 | 42 | 1003.2 |
| 20260506162644 | 76 | 222 | 5.0 | 9.0 | 0.00 | 0.00 | 0.00 | 41 | 1003.2 |
| 20260506162619 | 75 | 204 | 5.0 | 10.0 | 0.00 | 0.00 | 0.00 | 41 | 1002.1 |
| 20260506162513 | 76 | 185 | 5.0 | 8.0 | 0.00 | 0.00 | 0.00 | 41 | 1003.2 |
| 20260506162415 | 76 | 201 | 5.0 | 8.0 | 0.00 | 0.00 | 0.00 | 41 | 1003.2 |
| 20260506162301 | 76 | 184 | 5.0 | 9.0 | 0.00 | 0.00 | 0.00 | 40 | 1003.2 |
| 20260506162152 | 76 | 191 | 5.0 | 9.0 | 0.00 | 0.00 | 0.00 | 40 | 1003.2 |
| 20260506162053 | 76 | 181 | 5.0 | 9.0 | 0.00 | 0.00 | 0.00 | 40 | 1003.2 |
| 20260506161935 | 77 | 137 | 3.0 | 9.0 | 0.00 | 0.00 | 0.00 | 40 | 1003.3 |
| 20260506161838 | 77 | 157 | 4.0 | 9.0 | 0.00 | 0.00 | 0.00 | 40 | 1003.2 |
| 20260506161731 | 77 | 201 | 4.0 | 9.0 | 0.00 | 0.00 | 0.00 | 40 | 1003.2 |
| 20260506161637 | 77 | 186 | 4.0 | 9.0 | 0.00 | 0.00 | 0.00 | 41 | 1003.2 |
| 20260506161538 | 77 | 205 | 5.0 | 9.0 | 0.00 | 0.00 | 0.00 | 40 | 1003.3 |
| 20260506161441 | 77 | 222 | 5.0 | 9.0 | 0.00 | 0.00 | 0.00 | 40 | 1003.2 |
| 20260506161336 | 77 | 231 | 3.0 | 7.0 | 0.00 | 0.00 | 0.00 | 40 | 1003.2 |
| 20260506161235 | 77 | 186 | 2.0 | 6.0 | 0.00 | 0.00 | 0.00 | 40 | 1003.3 |
| 20260506161117 | 77 | 183 | 2.0 | 6.0 | 0.00 | 0.00 | 0.00 | 40 | 1003.2 |
| 20260506161019 | 77 | 209 | 2.0 | 6.0 | 0.00 | 0.00 | 0.00 | 40 | 1003.2 |
| 20260506160918 | 77 | 191 | 1.0 | 6.0 | 0.00 | 0.00 | 0.00 | 40 | 1003.2 |
| 20260506160819 | 77 | 187 | 2.0 | 6.0 | 0.00 | 0.00 | 0.00 | 40 | 1003.2 |
| 20260506160723 | 77 | 194 | 3.0 | 6.0 | 0.00 | 0.00 | 0.00 | 39 | 1003.2 |
| 20260506160607 | 77 | 103 | 2.0 | 8.0 | 0.00 | 0.00 | 0.00 | 40 | 1003.2 |
| 20260506160542 | 77 | 186 | 1.0 | 8.0 | 0.00 | 0.00 | 0.00 | 40 | 1002.1 |
| 20260506160456 | 77 | 179 | 1.0 | 8.0 | 0.00 | 0.00 | 0.00 | 41 | 1003.2 |
| 20260506160359 | 77 | 178 | 1.0 | 8.0 | 0.00 | 0.00 | 0.00 | 39 | 1003.2 |
| 20260506160304 | 77 | 178 | 2.0 | 8.0 | 0.00 | 0.00 | 0.00 | 40 | 1003.2 |
| 20260506160156 | 77 | 178 | 2.0 | 8.0 | 0.00 | 0.00 | 0.00 | 39 | 1003.2 |
| 20260506160057 | 77 | 161 | 1.0 | 8.0 | 0.00 | 0.00 | 0.00 | 39 | 1003.2 |
| 20260506160000 | 77 | 184 | 1.0 | 8.0 | 0.00 | 0.00 | 0.00 | 38 | 1003.2 |
| 20260506155902 | 77 | 195 | 3.0 | 8.0 | 0.00 | 0.00 | 0.00 | 38 | 1003.2 |
| 20260506155735 | 77 | 186 | 4.0 | 8.0 | 0.00 | 0.00 | 0.00 | 38 | 1003.3 |
| 20260506155639 | 77 | 184 | 4.0 | 7.0 | 0.00 | 0.00 | 0.00 | 39 | 1003.3 |
| 20260506155415 | 78 | 220 | 2.0 | 6.0 | 0.00 | 0.00 | 0.00 | 40 | 1003.3 |
| 20260506155310 | 78 | 193 | 3.0 | 6.0 | 0.00 | 0.00 | 0.00 | 40 | 1003.3 |
| 20260506155150 | 78 | 228 | 4.0 | 8.0 | 0.00 | 0.00 | 0.00 | 41 | 1003.3 |
| 20260506155050 | 77 | 236 | 4.0 | 8.0 | 0.00 | 0.00 | 0.00 | 39 | 1003.3 |
| 20260506155018 | 77 | 215 | 3.0 | 8.0 | 0.00 | 0.00 | 0.00 | 39 | 1002.2 |
| 20260506154943 | 77 | 199 | 4.0 | 8.0 | 0.00 | 0.00 | 0.00 | 38 | 1003.3 |
| 20260506154847 | 77 | 211 | 3.0 | 8.0 | 0.00 | 0.00 | 0.00 | 38 | 1003.4 |
| 20260506154752 | 77 | 191 | 2.0 | 8.0 | 0.00 | 0.00 | 0.00 | 37 | 1003.3 |
| 20260506154615 | 77 | 193 | 2.0 | 8.0 | 0.00 | 0.00 | 0.00 | 38 | 1003.3 |
| 20260506154540 | 77 | 221 | 2.0 | 8.0 | 0.00 | 0.00 | 0.00 | 38 | 1002.2 |
| 20260506154505 | 77 | 171 | 3.0 | 8.0 | 0.00 | 0.00 | 0.00 | 38 | 1003.3 |
| 20260506154406 | 77 | 188 | 3.0 | 8.0 | 0.00 | 0.00 | 0.00 | 38 | 1003.3 |
| 20260506154309 | 77 | 205 | 2.0 | 9.0 | 0.00 | 0.00 | 0.00 | 39 | 1003.4 |
| 20260506154210 | 78 | 313 | 2.0 | 6.0 | 0.00 | 0.00 | 0.00 | 38 | 1003.3 |
| 20260506154119 | 78 | 153 | 1.0 | 6.0 | 0.00 | 0.00 | 0.00 | 37 | 1003.3 |
| 20260506154055 | 77 | 140 | 1.0 | 6.0 | 0.00 | 0.00 | 0.00 | 37 | 1002.2 |
| 20260506153841 | 78 | 132 | 3.0 | 7.0 | 0.00 | 0.00 | 0.00 | 36 | 1003.3 |
| 20260506153722 | 78 | 200 | 4.0 | 7.0 | 0.00 | 0.00 | 0.00 | 37 | 1003.4 |
| 20260506153652 | 78 | 190 | 3.0 | 7.0 | 0.00 | 0.00 | 0.00 | 37 | 1002.3 |
| 20260506153615 | 78 | 213 | 3.0 | 7.0 | 0.00 | 0.00 | 0.00 | 37 | 1003.4 |
| 20260506153515 | 78 | 201 | 2.0 | 7.0 | 0.00 | 0.00 | 0.00 | 37 | 1003.4 |
| 20260506153418 | 78 | 183 | 3.0 | 7.0 | 0.00 | 0.00 | 0.00 | 37 | 1003.3 |
| 20260506153235 | 78 | 143 | 3.0 | 7.0 | 0.00 | 0.00 | 0.00 | 37 | 1003.4 |
| 20260506153138 | 78 | 175 | 4.0 | 9.0 | 0.00 | 0.00 | 0.00 | 38 | 1003.3 |
| 20260506153018 | 78 | 220 | 4.0 | 9.0 | 0.00 | 0.00 | 0.00 | 36 | 1003.4 |
| 20260506152912 | 79 | 201 | 3.0 | 9.0 | 0.00 | 0.00 | 0.00 | 36 | 1003.4 |
| 20260506152814 | 79 | 183 | 3.0 | 9.0 | 0.00 | 0.00 | 0.00 | 36 | 1003.4 |
| 20260506152716 | 79 | 205 | 5.0 | 9.0 | 0.00 | 0.00 | 0.00 | 36 | 1003.4 |
| 20260506152624 | 79 | 186 | 5.0 | 9.0 | 0.00 | 0.00 | 0.00 | 36 | 1003.5 |
| 20260506152549 | 78 | 193 | 4.0 | 9.0 | 0.00 | 0.00 | 0.00 | 36 | 1002.4 |
| 20260506152517 | 79 | 218 | 4.0 | 9.0 | 0.00 | 0.00 | 0.00 | 36 | 1003.5 |
| 20260506152418 | 79 | 186 | 3.0 | 9.0 | 0.00 | 0.00 | 0.00 | 36 | 1003.5 |
| 20260506152258 | 79 | 165 | 1.0 | 8.0 | 0.00 | 0.00 | 0.00 | 38 | 1003.4 |
| 20260506152139 | 79 | 214 | 3.0 | 8.0 | 0.00 | 0.00 | 0.00 | 37 | 1003.4 |
| 20260506152111 | 78 | 214 | 4.0 | 8.0 | 0.00 | 0.00 | 0.00 | 37 | 1002.3 |
| 20260506152030 | 79 | 209 | 5.0 | 8.0 | 0.00 | 0.00 | 0.00 | 37 | 1003.4 |
| 20260506151912 | 79 | 218 | 4.0 | 8.0 | 0.00 | 0.00 | 0.00 | 38 | 1003.4 |
| 20260506151819 | 79 | 232 | 4.0 | 9.0 | 0.00 | 0.00 | 0.00 | 37 | 1003.4 |
| 20260506151722 | 79 | 207 | 4.0 | 9.0 | 0.00 | 0.00 | 0.00 | 37 | 1003.4 |
| 20260506151635 | 78 | 220 | 4.0 | 9.0 | 0.00 | 0.00 | 0.00 | 37 | 1002.4 |
| 20260506151534 | 79 | 225 | 4.0 | 9.0 | 0.00 | 0.00 | 0.00 | 36 | 1003.5 |
| 20260506151416 | 79 | 218 | 3.0 | 10.0 | 0.00 | 0.00 | 0.00 | 36 | 1003.5 |
| 20260506151310 | 79 | 223 | 4.0 | 10.0 | 0.00 | 0.00 | 0.00 | 37 | 1003.5 |
| 20260506151211 | 79 | 155 | 5.0 | 10.0 | 0.00 | 0.00 | 0.00 | 36 | 1003.5 |
| 20260506151116 | 79 | 204 | 6.0 | 10.0 | 0.00 | 0.00 | 0.00 | 35 | 1003.5 |
| 20260506151017 | 79 | 232 | 5.0 | 10.0 | 0.00 | 0.00 | 0.00 | 35 | 1003.5 |
| 20260506150911 | 79 | 207 | 4.0 | 10.0 | 0.00 | 0.00 | 0.00 | 35 | 1003.5 |
| 20260506150813 | 79 | 220 | 6.0 | 15.0 | 0.00 | 0.00 | 0.00 | 35 | 1003.5 |
| 20260506150655 | 79 | 205 | 5.0 | 15.0 | 0.00 | 0.00 | 0.00 | 35 | 1003.5 |
| 20260506150556 | 80 | 194 | 5.0 | 15.0 | 0.00 | 0.00 | 0.00 | 35 | 1003.4 |
| 20260506150508 | 79 | 212 | 4.0 | 15.0 | 0.00 | 0.00 | 0.00 | 35 | 1002.3 |
| 20260506150432 | 80 | 188 | 5.0 | 15.0 | 0.00 | 0.00 | 0.00 | 36 | 1003.4 |
| 20260506150336 | 80 | 191 | 5.0 | 15.0 | 0.00 | 0.00 | 0.00 | 35 | 1003.4 |
| 20260506150237 | 80 | 194 | 6.0 | 15.0 | 0.00 | 0.00 | 0.00 | 36 | 1003.4 |
| 20260506150119 | 80 | 209 | 8.0 | 15.0 | 0.00 | 0.00 | 0.00 | 36 | 1003.5 |
| 20260506150046 | 79 | 215 | 7.0 | 15.0 | 0.00 | 0.00 | 0.00 | 36 | 1002.3 |
| 20260506150009 | 80 | 228 | 7.0 | 15.0 | 0.00 | 0.00 | 0.00 | 36 | 1003.4 |
| 20260506145912 | 80 | 248 | 6.0 | 8.0 | 0.00 | 0.00 | 0.00 | 35 | 1003.4 |
| 20260506145815 | 80 | 226 | 5.0 | 10.0 | 0.00 | 0.00 | 0.00 | 35 | 1003.5 |
| 20260506145722 | 80 | 230 | 5.0 | 10.0 | 0.00 | 0.00 | 0.00 | 34 | 1003.4 |
| 20260506145651 | 79 | 203 | 4.0 | 10.0 | 0.00 | 0.00 | 0.00 | 34 | 1002.4 |
| 20260506145615 | 80 | 193 | 5.0 | 10.0 | 0.00 | 0.00 | 0.00 | 34 | 1003.5 |
| 20260506145515 | 80 | 195 | 4.0 | 10.0 | 0.00 | 0.00 | 0.00 | 34 | 1003.5 |
| 20260506145417 | 80 | 217 | 4.0 | 10.0 | 0.00 | 0.00 | 0.00 | 34 | 1003.4 |
| 20260506145259 | 80 | 209 | 4.0 | 10.0 | 0.00 | 0.00 | 0.00 | 33 | 1003.4 |
| 20260506145150 | 80 | 199 | 5.0 | 11.0 | 0.00 | 0.00 | 0.00 | 33 | 1003.5 |
| 20260506145054 | 80 | 153 | 5.0 | 13.0 | 0.00 | 0.00 | 0.00 | 33 | 1003.5 |
| 20260506144957 | 80 | 188 | 5.0 | 13.0 | 0.00 | 0.00 | 0.00 | 33 | 1003.5 |
| 20260506144900 | 81 | 193 | 6.0 | 13.0 | 0.00 | 0.00 | 0.00 | 33 | 1003.5 |
| 20260506144752 | 81 | 218 | 8.0 | 13.0 | 0.00 | 0.00 | 0.00 | 34 | 1003.4 |
| 20260506144654 | 81 | 240 | 7.0 | 13.0 | 0.00 | 0.00 | 0.00 | 34 | 1003.5 |
| 20260506144554 | 81 | 251 | 7.0 | 13.0 | 0.00 | 0.00 | 0.00 | 34 | 1003.5 |
| 20260506144517 | 80 | 230 | 7.0 | 13.0 | 0.00 | 0.00 | 0.00 | 34 | 1002.4 |
| 20260506144432 | 81 | 225 | 8.0 | 13.0 | 0.00 | 0.00 | 0.00 | 34 | 1003.4 |
| 20260506144313 | 81 | 230 | 8.0 | 13.0 | 0.00 | 0.00 | 0.00 | 35 | 1003.5 |
| 20260506144215 | 81 | 240 | 6.0 | 14.0 | 0.00 | 0.00 | 0.00 | 35 | 1003.5 |
| 20260506144114 | 81 | 213 | 5.0 | 18.0 | 0.00 | 0.00 | 0.00 | 34 | 1003.4 |
| 20260506144026 | 80 | 218 | 5.0 | 18.0 | 0.00 | 0.00 | 0.00 | 34 | 1002.3 |
| 20260506143948 | 81 | 238 | 6.0 | 18.0 | 0.00 | 0.00 | 0.00 | 35 | 1003.4 |
| 20260506143852 | 81 | 215 | 5.0 | 18.0 | 0.00 | 0.00 | 0.00 | 34 | 1003.4 |
| 20260506143755 | 81 | 215 | 3.0 | 18.0 | 0.00 | 0.00 | 0.00 | 33 | 1003.4 |
| 20260506143701 | 81 | 199 | 3.0 | 18.0 | 0.00 | 0.00 | 0.00 | 33 | 1003.4 |
| 20260506143627 | 80 | 199 | 4.0 | 18.0 | 0.00 | 0.00 | 0.00 | 33 | 1002.3 |
| 20260506143553 | 81 | 199 | 6.0 | 18.0 | 0.00 | 0.00 | 0.00 | 33 | 1003.5 |
| 20260506143457 | 81 | 205 | 7.0 | 18.0 | 0.00 | 0.00 | 0.00 | 34 | 1003.4 |
| 20260506143359 | 81 | 227 | 11.0 | 18.0 | 0.00 | 0.00 | 0.00 | 34 | 1003.4 |
| 20260506143239 | 81 | 234 | 11.0 | 18.0 | 0.00 | 0.00 | 0.00 | 34 | 1003.4 |
| 20260506143134 | 81 | 246 | 8.0 | 14.0 | 0.00 | 0.00 | 0.00 | 34 | 1003.4 |
| 20260506143037 | 81 | 243 | 7.0 | 13.0 | 0.00 | 0.00 | 0.00 | 34 | 1003.4 |
| 20260506142940 | 81 | 232 | 9.0 | 13.0 | 0.00 | 0.00 | 0.00 | 33 | 1003.5 |
| 20260506142843 | 81 | 270 | 9.0 | 13.0 | 0.00 | 0.00 | 0.00 | 34 | 1003.4 |
| 20260506142737 | 81 | 251 | 8.0 | 13.0 | 0.00 | 0.00 | 0.00 | 33 | 1003.4 |
| 20260506142640 | 81 | 266 | 8.0 | 13.0 | 0.00 | 0.00 | 0.00 | 33 | 1003.4 |
| 20260506142541 | 81 | 227 | 9.0 | 13.0 | 0.00 | 0.00 | 0.00 | 33 | 1003.4 |
| 20260506142442 | 82 | 227 | 10.0 | 16.0 | 0.00 | 0.00 | 0.00 | 32 | 1003.4 |
| 20260506142339 | 82 | 277 | 10.0 | 16.0 | 0.00 | 0.00 | 0.00 | 32 | 1003.4 |
| 20260506142241 | 82 | 247 | 8.0 | 16.0 | 0.00 | 0.00 | 0.00 | 33 | 1003.5 |
| 20260506142143 | 82 | 245 | 5.0 | 16.0 | 0.00 | 0.00 | 0.00 | 34 | 1003.4 |
| 20260506142044 | 82 | 202 | 5.0 | 16.0 | 0.00 | 0.00 | 0.00 | 33 | 1003.5 |
| 20260506142015 | 81 | 254 | 4.0 | 16.0 | 0.00 | 0.00 | 0.00 | 32 | 1002.4 |
| 20260506141937 | 82 | 214 | 7.0 | 16.0 | 0.00 | 0.00 | 0.00 | 32 | 1003.5 |
| 20260506141818 | 82 | 213 | 8.0 | 16.0 | 0.00 | 0.00 | 0.00 | 33 | 1003.5 |
| 20260506141724 | 82 | 251 | 10.0 | 16.0 | 0.00 | 0.00 | 0.00 | 33 | 1003.5 |
| 20260506141627 | 82 | 212 | 9.0 | 16.0 | 0.00 | 0.00 | 0.00 | 33 | 1003.5 |
| 20260506141554 | 81 | 244 | 7.0 | 14.0 | 0.00 | 0.00 | 0.00 | 34 | 1002.5 |
| 20260506141517 | 82 | 261 | 6.0 | 12.0 | 0.00 | 0.00 | 0.00 | 34 | 1003.6 |
| 20260506141419 | 81 | 201 | 6.0 | 12.0 | 0.00 | 0.00 | 0.00 | 34 | 1003.6 |
| 20260506141321 | 81 | 222 | 6.0 | 12.0 | 0.00 | 0.00 | 0.00 | 34 | 1003.6 |
| 20260506141156 | 81 | 228 | 3.0 | 10.0 | 0.00 | 0.00 | 0.00 | 34 | 1003.6 |
| 20260506141127 | 80 | 213 | 2.0 | 10.0 | 0.00 | 0.00 | 0.00 | 33 | 1002.5 |
| 20260506141048 | 81 | 199 | 2.0 | 10.0 | 0.00 | 0.00 | 0.00 | 33 | 1003.5 |
| 20260506140955 | 81 | 189 | 3.0 | 10.0 | 0.00 | 0.00 | 0.00 | 34 | 1003.5 |
| 20260506140836 | 81 | 215 | 6.0 | 10.0 | 0.00 | 0.00 | 0.00 | 34 | 1003.6 |
| 20260506140739 | 80 | 213 | 8.0 | 10.0 | 0.00 | 0.00 | 0.00 | 34 | 1003.6 |
| 20260506140633 | 80 | 197 | 6.0 | 11.0 | 0.00 | 0.00 | 0.00 | 35 | 1003.6 |
| 20260506140534 | 80 | 231 | 4.0 | 8.0 | 0.00 | 0.00 | 0.00 | 33 | 1003.6 |
| 20260506140436 | 80 | 216 | 3.0 | 7.0 | 0.00 | 0.00 | 0.00 | 34 | 1003.7 |
| 20260506140343 | 80 | 198 | 3.0 | 10.0 | 0.00 | 0.00 | 0.00 | 34 | 1003.6 |
| 20260506140214 | 80 | 225 | 1.0 | 10.0 | 0.00 | 0.00 | 0.00 | 34 | 1003.6 |
| 20260506140118 | 79 | 232 | 0.0 | 10.0 | 0.00 | 0.00 | 0.00 | 34 | 1003.6 |
| 20260506135957 | 79 | 232 | 1.0 | 14.0 | 0.00 | 0.00 | 0.00 | 34 | 1003.6 |
| 20260506135859 | 79 | 232 | 3.0 | 14.0 | 0.00 | 0.00 | 0.00 | 36 | 1003.7 |
| 20260506135731 | 79 | 244 | 5.0 | 15.0 | 0.00 | 0.00 | 0.00 | 34 | 1003.7 |
| 20260506135610 | 79 | 218 | 7.0 | 20.0 | 0.00 | 0.00 | 0.00 | 34 | 1003.6 |
| 20260506135512 | 79 | 268 | 8.0 | 20.0 | 0.00 | 0.00 | 0.00 | 34 | 1003.6 |
| 20260506135416 | 80 | 268 | 8.0 | 20.0 | 0.00 | 0.00 | 0.00 | 36 | 1003.6 |
| 20260506135310 | 80 | 280 | 9.0 | 20.0 | 0.00 | 0.00 | 0.00 | 35 | 1003.6 |
| 20260506135211 | 80 | 280 | 10.0 | 20.0 | 0.00 | 0.00 | 0.00 | 35 | 1003.6 |
| 20260506135115 | 80 | 272 | 11.0 | 20.0 | 0.00 | 0.00 | 0.00 | 34 | 1003.7 |
| 20260506135015 | 80 | 292 | 11.0 | 20.0 | 0.00 | 0.00 | 0.00 | 34 | 1003.7 |
| 20260506134913 | 81 | 258 | 12.0 | 20.0 | 0.00 | 0.00 | 0.00 | 35 | 1003.6 |
| 20260506134754 | 81 | 255 | 14.0 | 20.0 | 0.00 | 0.00 | 0.00 | 34 | 1003.6 |
| 20260506134636 | 81 | 273 | 11.0 | 16.0 | 0.00 | 0.00 | 0.00 | 34 | 1003.7 |
| 20260506134536 | 81 | 256 | 10.0 | 15.0 | 0.00 | 0.00 | 0.00 | 35 | 1003.7 |
| 20260506134409 | 81 | 272 | 11.0 | 15.0 | 0.00 | 0.00 | 0.00 | 34 | 1003.7 |
| 20260506134312 | 81 | 243 | 11.0 | 15.0 | 0.00 | 0.00 | 0.00 | 35 | 1003.8 |
| 20260506134214 | 81 | 236 | 9.0 | 15.0 | 0.00 | 0.00 | 0.00 | 36 | 1003.8 |
| 20260506134120 | 81 | 241 | 9.0 | 12.0 | 0.00 | 0.00 | 0.00 | 33 | 1003.8 |
| 20260506134028 | 81 | 249 | 8.0 | 14.0 | 0.00 | 0.00 | 0.00 | 33 | 1002.7 |
| 20260506133952 | 81 | 273 | 8.0 | 14.0 | 0.00 | 0.00 | 0.00 | 34 | 1003.8 |
| 20260506133855 | 81 | 245 | 6.0 | 14.0 | 0.00 | 0.00 | 0.00 | 34 | 1003.8 |
| 20260506133758 | 81 | 216 | 5.0 | 14.0 | 0.00 | 0.00 | 0.00 | 35 | 1003.8 |
| 20260506133701 | 81 | 221 | 7.0 | 14.0 | 0.00 | 0.00 | 0.00 | 35 | 1003.8 |
| 20260506133611 | 81 | 211 | 6.0 | 14.0 | 0.00 | 0.00 | 0.00 | 35 | 1002.7 |
| 20260506133531 | 81 | 249 | 7.0 | 14.0 | 0.00 | 0.00 | 0.00 | 34 | 1003.7 |
| 20260506133439 | 81 | 237 | 7.0 | 14.0 | 0.00 | 0.00 | 0.00 | 34 | 1003.8 |
| 20260506133341 | 82 | 258 | 10.0 | 14.0 | 0.00 | 0.00 | 0.00 | 33 | 1003.8 |
| 20260506133244 | 82 | 268 | 9.0 | 14.0 | 0.00 | 0.00 | 0.00 | 33 | 1003.8 |
| 20260506133136 | 82 | 261 | 8.0 | 12.0 | 0.00 | 0.00 | 0.00 | 33 | 1003.7 |
| 20260506133038 | 82 | 310 | 7.0 | 12.0 | 0.00 | 0.00 | 0.00 | 33 | 1003.9 |
| 20260506132940 | 82 | 253 | 5.0 | 12.0 | 0.00 | 0.00 | 0.00 | 33 | 1003.9 |
| 20260506132843 | 82 | 253 | 3.0 | 10.0 | 0.00 | 0.00 | 0.00 | 34 | 1003.9 |
| 20260506132739 | 82 | 228 | 3.0 | 10.0 | 0.00 | 0.00 | 0.00 | 34 | 1004.0 |
| 20260506132641 | 82 | 245 | 3.0 | 10.0 | 0.00 | 0.00 | 0.00 | 34 | 1003.9 |
| 20260506132542 | 82 | 322 | 4.0 | 10.0 | 0.00 | 0.00 | 0.00 | 34 | 1004.0 |
| 20260506132445 | 81 | 209 | 5.0 | 10.0 | 0.00 | 0.00 | 0.00 | 34 | 1004.0 |
| 20260506132339 | 81 | 234 | 6.0 | 10.0 | 0.00 | 0.00 | 0.00 | 35 | 1004.1 |
| 20260506132048 | 81 | 160 | 2.0 | 8.0 | 0.00 | 0.00 | 0.00 | 35 | 1004.0 |
| 20260506131955 | 81 | 195 | 4.0 | 8.0 | 0.00 | 0.00 | 0.00 | 35 | 1004.0 |
| 20260506131847 | 80 | 132 | 5.0 | 8.0 | 0.00 | 0.00 | 0.00 | 34 | 1004.0 |
| 20260506131748 | 80 | 203 | 4.0 | 8.0 | 0.00 | 0.00 | 0.00 | 36 | 1004.1 |
| 20260506131651 | 80 | 80 | 4.0 | 8.0 | 0.00 | 0.00 | 0.00 | 38 | 1004.0 |
| 20260506131618 | 79 | 178 | 3.0 | 8.0 | 0.00 | 0.00 | 0.00 | 38 | 1002.9 |
| 20260506131542 | 80 | 219 | 4.0 | 9.0 | 0.00 | 0.00 | 0.00 | 35 | 1004.1 |
| 20260506131446 | 79 | 180 | 5.0 | 10.0 | 0.00 | 0.00 | 0.00 | 35 | 1004.1 |
| 20260506131332 | 79 | 186 | 4.0 | 11.0 | 0.00 | 0.00 | 0.00 | 35 | 1004.1 |
| 20260506131224 | 79 | 153 | 5.0 | 12.0 | 0.00 | 0.00 | 0.00 | 34 | 1004.1 |
| 20260506131128 | 80 | 139 | 4.0 | 12.0 | 0.00 | 0.00 | 0.00 | 35 | 1004.1 |
| 20260506131029 | 80 | 221 | 5.0 | 12.0 | 0.00 | 0.00 | 0.00 | 35 | 1004.1 |
| 20260506130930 | 80 | 224 | 6.0 | 12.0 | 0.00 | 0.00 | 0.00 | 35 | 1004.1 |
| 20260506130802 | 80 | 225 | 7.0 | 12.0 | 0.00 | 0.00 | 0.00 | 34 | 1004.1 |
| 20260506130648 | 80 | 224 | 8.0 | 12.0 | 0.00 | 0.00 | 0.00 | 35 | 1004.1 |
| 20260506130547 | 80 | 222 | 8.0 | 12.0 | 0.00 | 0.00 | 0.00 | 35 | 1004.1 |
| 20260506130449 | 80 | 215 | 8.0 | 12.0 | 0.00 | 0.00 | 0.00 | 35 | 1004.1 |
| 20260506130343 | 80 | 231 | 8.0 | 13.0 | 0.00 | 0.00 | 0.00 | 36 | 1004.1 |
| 20260506130246 | 80 | 234 | 6.0 | 11.0 | 0.00 | 0.00 | 0.00 | 35 | 1004.0 |
| 20260506130149 | 80 | 259 | 2.0 | 11.0 | 0.00 | 0.00 | 0.00 | 35 | 1002.9 |
| 20260506130040 | 81 | 230 | 3.0 | 11.0 | 0.00 | 0.00 | 0.00 | 34 | 1004.0 |
| 20260506125947 | 81 | 248 | 4.0 | 11.0 | 0.00 | 0.00 | 0.00 | 33 | 1004.1 |
| 20260506125851 | 81 | 275 | 5.0 | 11.0 | 0.00 | 0.00 | 0.00 | 34 | 1004.1 |
| 20260506125754 | 81 | 222 | 5.0 | 10.0 | 0.00 | 0.00 | 0.00 | 34 | 1004.1 |
| 20260506125647 | 81 | 218 | 6.0 | 10.0 | 0.00 | 0.00 | 0.00 | 35 | 1004.2 |
| 20260506125550 | 81 | 222 | 5.0 | 12.0 | 0.00 | 0.00 | 0.00 | 36 | 1004.1 |
| 20260506125433 | 80 | 268 | 1.0 | 14.0 | 0.00 | 0.00 | 0.00 | 34 | 1004.2 |
| 20260506125341 | 80 | 250 | 0.0 | 14.0 | 0.00 | 0.00 | 0.00 | 34 | 1004.1 |
| 20260506125232 | 80 | 250 | 2.0 | 14.0 | 0.00 | 0.00 | 0.00 | 33 | 1004.1 |
| 20260506125135 | 80 | 250 | 4.0 | 14.0 | 0.00 | 0.00 | 0.00 | 33 | 1004.1 |
| 20260506125036 | 80 | 250 | 6.0 | 14.0 | 0.00 | 0.00 | 0.00 | 34 | 1004.2 |
| 20260506125004 | 80 | 256 | 6.0 | 14.0 | 0.00 | 0.00 | 0.00 | 34 | 1003.1 |
| 20260506124800 | 80 | 255 | 9.0 | 14.0 | 0.00 | 0.00 | 0.00 | 33 | 1004.2 |
| 20260506124703 | 80 | 272 | 7.0 | 11.0 | 0.00 | 0.00 | 0.00 | 35 | 1004.2 |
| 20260506124547 | 80 | 228 | 5.0 | 10.0 | 0.00 | 0.00 | 0.00 | 33 | 1004.2 |
| 20260506124521 | 80 | 123 | 5.0 | 10.0 | 0.00 | 0.00 | 0.00 | 33 | 1003.2 |
| 20260506124441 | 80 | 122 | 5.0 | 10.0 | 0.00 | 0.00 | 0.00 | 33 | 1004.4 |
| 20260506124345 | 80 | 276 | 4.0 | 10.0 | 0.00 | 0.00 | 0.00 | 34 | 1004.3 |
| 20260506124249 | 80 | 199 | 4.0 | 10.0 | 0.00 | 0.00 | 0.00 | 35 | 1004.3 |
| 20260506124130 | 80 | 208 | 5.0 | 10.0 | 0.00 | 0.00 | 0.00 | 34 | 1004.3 |
| 20260506124105 | 80 | 218 | 5.0 | 10.0 | 0.00 | 0.00 | 0.00 | 35 | 1003.2 |
| 20260506124021 | 80 | 219 | 7.0 | 12.0 | 0.00 | 0.00 | 0.00 | 34 | 1004.3 |
| 20260506123845 | 80 | 247 | 9.0 | 12.0 | 0.00 | 0.00 | 0.00 | 34 | 1004.3 |
| 20260506123748 | 81 | 224 | 9.0 | 12.0 | 0.00 | 0.00 | 0.00 | 35 | 1004.2 |
| 20260506123651 | 81 | 253 | 6.0 | 12.0 | 0.00 | 0.00 | 0.00 | 36 | 1004.3 |
| 20260506123626 | 80 | 248 | 5.0 | 12.0 | 0.00 | 0.00 | 0.00 | 36 | 1003.3 |
| 20260506123522 | 81 | 203 | 7.0 | 12.0 | 0.00 | 0.00 | 0.00 | 36 | 1004.3 |
| 20260506123424 | 80 | 230 | 7.0 | 12.0 | 0.00 | 0.00 | 0.00 | 37 | 1004.4 |
| 20260506123328 | 80 | 227 | 8.0 | 12.0 | 0.00 | 0.00 | 0.00 | 36 | 1004.3 |
| 20260506123158 | 80 | 220 | 10.0 | 12.0 | 0.00 | 0.00 | 0.00 | 36 | 1004.4 |
| 20260506123104 | 80 | 226 | 9.0 | 13.0 | 0.00 | 0.00 | 0.00 | 37 | 1004.4 |
| 20260506122944 | 80 | 245 | 7.0 | 13.0 | 0.00 | 0.00 | 0.00 | 36 | 1004.4 |
| 20260506122846 | 80 | 253 | 7.0 | 13.0 | 0.00 | 0.00 | 0.00 | 36 | 1004.4 |
| 20260506122750 | 80 | 274 | 7.0 | 13.0 | 0.00 | 0.00 | 0.00 | 35 | 1004.4 |
| 20260506122643 | 80 | 263 | 9.0 | 13.0 | 0.00 | 0.00 | 0.00 | 33 | 1004.4 |
| 20260506122522 | 80 | 272 | 10.0 | 13.0 | 0.00 | 0.00 | 0.00 | 34 | 1004.4 |
| 20260506122429 | 80 | 257 | 6.0 | 12.0 | 0.00 | 0.00 | 0.00 | 34 | 1004.3 |
| 20260506122332 | 80 | 315 | 4.0 | 12.0 | 0.00 | 0.00 | 0.00 | 34 | 1004.4 |
| 20260506122202 | 80 | 304 | 5.0 | 12.0 | 0.00 | 0.00 | 0.00 | 35 | 1004.3 |
| 20260506122105 | 80 | 232 | 3.0 | 12.0 | 0.00 | 0.00 | 0.00 | 36 | 1004.4 |
| 20260506122006 | 80 | 218 | 2.0 | 12.0 | 0.00 | 0.00 | 0.00 | 36 | 1004.4 |
| 20260506121907 | 80 | 214 | 4.0 | 12.0 | 0.00 | 0.00 | 0.00 | 35 | 1004.5 |
| 20260506121800 | 79 | 261 | 6.0 | 12.0 | 0.00 | 0.00 | 0.00 | 34 | 1004.6 |
| 20260506121707 | 79 | 149 | 7.0 | 12.0 | 0.00 | 0.00 | 0.00 | 34 | 1004.6 |
| 20260506121610 | 79 | 135 | 7.0 | 12.0 | 0.00 | 0.00 | 0.00 | 34 | 1004.5 |
| 20260506121510 | 79 | 101 | 4.0 | 9.0 | 0.00 | 0.00 | 0.00 | 34 | 1004.4 |
| 20260506121413 | 80 | 128 | 1.0 | 9.0 | 0.00 | 0.00 | 0.00 | 34 | 1004.6 |
| 20260506121246 | 80 | 178 | 2.0 | 9.0 | 0.00 | 0.00 | 0.00 | 34 | 1004.6 |
| 20260506121148 | 79 | 176 | 4.0 | 9.0 | 0.00 | 0.00 | 0.00 | 33 | 1004.7 |
| 20260506121053 | 80 | 159 | 4.0 | 9.0 | 0.00 | 0.00 | 0.00 | 33 | 1004.7 |
| 20260506120956 | 80 | 244 | 4.0 | 9.0 | 0.00 | 0.00 | 0.00 | 33 | 1004.7 |
| 20260506120849 | 80 | 226 | 4.0 | 9.0 | 0.00 | 0.00 | 0.00 | 36 | 1004.7 |
| 20260506120730 | 80 | 238 | 5.0 | 9.0 | 0.00 | 0.00 | 0.00 | 36 | 1004.7 |
| 20260506120633 | 80 | 226 | 6.0 | 10.0 | 0.00 | 0.00 | 0.00 | 37 | 1004.7 |
| 20260506120550 | 79 | 207 | 6.0 | 10.0 | 0.00 | 0.00 | 0.00 | 37 | 1003.6 |
| 20260506120502 | 80 | 224 | 7.0 | 10.0 | 0.00 | 0.00 | 0.00 | 36 | 1004.6 |
| 20260506120408 | 80 | 275 | 5.0 | 8.0 | 0.00 | 0.00 | 0.00 | 35 | 1004.5 |
| 20260506120311 | 80 | 256 | 3.0 | 7.0 | 0.00 | 0.00 | 0.00 | 38 | 1004.5 |
| 20260506120211 | 80 | 290 | 2.0 | 5.0 | 0.00 | 0.00 | 0.00 | 36 | 1004.5 |
| 20260506120149 | 79 | 272 | 2.0 | 5.0 | 0.00 | 0.00 | 0.00 | 35 | 1003.5 |
| 20260506120104 | 80 | 280 | 2.0 | 5.0 | 0.00 | 0.00 | 0.00 | 34 | 1004.6 |
| 20260506115943 | 80 | 280 | 3.0 | 5.0 | 0.00 | 0.00 | 0.00 | 34 | 1004.6 |
| 20260506115707 | 80 | 222 | 1.0 | 10.0 | 0.00 | 0.00 | 0.00 | 33 | 1004.6 |
| 20260506115615 | 80 | 222 | 1.0 | 10.0 | 0.00 | 0.00 | 0.00 | 34 | 1004.6 |
| 20260506115517 | 80 | 222 | 2.0 | 10.0 | 0.00 | 0.00 | 0.00 | 36 | 1004.6 |
| 20260506115420 | 80 | 222 | 2.0 | 10.0 | 0.00 | 0.00 | 0.00 | 35 | 1004.6 |
| 20260506115314 | 80 | 222 | 2.0 | 10.0 | 0.00 | 0.00 | 0.00 | 38 | 1004.6 |
| 20260506115152 | 80 | 234 | 3.0 | 10.0 | 0.00 | 0.00 | 0.00 | 36 | 1004.7 |
| 20260506115053 | 80 | 246 | 4.0 | 10.0 | 0.00 | 0.00 | 0.00 | 36 | 1004.6 |
| 20260506114957 | 80 | 224 | 6.0 | 10.0 | 0.00 | 0.00 | 0.00 | 36 | 1004.6 |
| 20260506114842 | 80 | 236 | 7.0 | 10.0 | 0.00 | 0.00 | 0.00 | 36 | 1004.6 |
| 20260506114737 | 80 | 238 | 7.0 | 9.0 | 0.00 | 0.00 | 0.00 | 35 | 1004.6 |
| 20260506114641 | 80 | 263 | 5.0 | 8.0 | 0.00 | 0.00 | 0.00 | 35 | 1004.6 |
| 20260506114541 | 80 | 263 | 2.0 | 5.0 | 0.00 | 0.00 | 0.00 | 35 | 1004.6 |
| 20260506114445 | 80 | 340 | 1.0 | 12.0 | 0.00 | 0.00 | 0.00 | 35 | 1004.6 |
| 20260506114338 | 80 | 340 | 2.0 | 15.0 | 0.00 | 0.00 | 0.00 | 34 | 1004.6 |
| 20260506114223 | 80 | 123 | 2.0 | 15.0 | 0.00 | 0.00 | 0.00 | 34 | 1004.6 |
| 20260506114125 | 80 | 126 | 2.0 | 15.0 | 0.00 | 0.00 | 0.00 | 33 | 1004.7 |
| 20260506114048 | 80 | 126 | 1.0 | 15.0 | 0.00 | 0.00 | 0.00 | 33 | 1003.6 |
| 20260506113955 | 80 | 184 | 1.0 | 15.0 | 0.00 | 0.00 | 0.00 | 34 | 1004.7 |
| 20260506113855 | 80 | 268 | 1.0 | 15.0 | 0.00 | 0.00 | 0.00 | 34 | 1004.6 |
| 20260506113759 | 80 | 268 | 5.0 | 15.0 | 0.00 | 0.00 | 0.00 | 33 | 1004.7 |
| 20260506113701 | 81 | 274 | 10.0 | 15.0 | 0.00 | 0.00 | 0.00 | 33 | 1004.6 |
| 20260506113629 | 80 | 278 | 10.0 | 15.0 | 0.00 | 0.00 | 0.00 | 33 | 1003.6 |
| 20260506113537 | 81 | 259 | 8.0 | 15.0 | 0.00 | 0.00 | 0.00 | 34 | 1004.6 |
| 20260506113440 | 81 | 251 | 6.0 | 14.0 | 0.00 | 0.00 | 0.00 | 34 | 1004.6 |
| 20260506113342 | 81 | 238 | 9.0 | 14.0 | 0.00 | 0.00 | 0.00 | 33 | 1004.6 |
| 20260506113234 | 81 | 266 | 9.0 | 14.0 | 0.00 | 0.00 | 0.00 | 32 | 1004.6 |
| 20260506113136 | 81 | 240 | 10.0 | 14.0 | 0.00 | 0.00 | 0.00 | 33 | 1004.6 |
| 20260506113016 | 82 | 272 | 11.0 | 14.0 | 0.00 | 0.00 | 0.00 | 34 | 1004.6 |
| 20260506112908 | 82 | 297 | 10.0 | 14.0 | 0.00 | 0.00 | 0.00 | 32 | 1004.5 |
| 20260506112814 | 82 | 320 | 7.0 | 14.0 | 0.00 | 0.00 | 0.00 | 30 | 1004.4 |
| 20260506112717 | 82 | 32 | 5.0 | 10.0 | 0.00 | 0.00 | 0.00 | 31 | 1004.5 |
| 20260506112619 | 82 | 57 | 4.0 | 8.0 | 0.00 | 0.00 | 0.00 | 30 | 1004.6 |
| 20260506112543 | 81 | 91 | 3.0 | 8.0 | 0.00 | 0.00 | 0.00 | 31 | 1003.6 |
| 20260506112510 | 82 | 103 | 1.0 | 8.0 | 0.00 | 0.00 | 0.00 | 30 | 1004.6 |
| 20260506112350 | 82 | 75 | 1.0 | 8.0 | 0.00 | 0.00 | 0.00 | 30 | 1004.7 |
| 20260506112230 | 82 | 75 | 3.0 | 9.0 | 0.00 | 0.00 | 0.00 | 30 | 1004.7 |
| 20260506112128 | 82 | 61 | 2.0 | 9.0 | 0.00 | 0.00 | 0.00 | 31 | 1004.7 |
| 20260506112028 | 82 | 238 | 3.0 | 12.0 | 0.00 | 0.00 | 0.00 | 32 | 1004.7 |
| 20260506111928 | 82 | 238 | 5.0 | 12.0 | 0.00 | 0.00 | 0.00 | 31 | 1004.8 |
| 20260506111812 | 82 | 276 | 5.0 | 12.0 | 0.00 | 0.00 | 0.00 | 31 | 1004.8 |
| 20260506111705 | 82 | 236 | 4.0 | 12.0 | 0.00 | 0.00 | 0.00 | 32 | 1004.8 |
| 20260506111609 | 82 | 234 | 4.0 | 12.0 | 0.00 | 0.00 | 0.00 | 32 | 1004.8 |
| 20260506111512 | 81 | 214 | 5.0 | 12.0 | 0.00 | 0.00 | 0.00 | 33 | 1004.9 |
| 20260506111354 | 81 | 179 | 6.0 | 12.0 | 0.00 | 0.00 | 0.00 | 32 | 1004.9 |
| 20260506111247 | 81 | 265 | 8.0 | 12.0 | 0.00 | 0.00 | 0.00 | 32 | 1005.0 |
| 20260506111128 | 81 | 239 | 8.0 | 11.0 | 0.00 | 0.00 | 0.00 | 32 | 1004.9 |
| 20260506111007 | 81 | 247 | 7.0 | 11.0 | 0.00 | 0.00 | 0.00 | 33 | 1005.0 |
| 20260506110838 | 81 | 253 | 3.0 | 10.0 | 0.00 | 0.00 | 0.00 | 34 | 1005.0 |
| 20260506110618 | 80 | 353 | 1.0 | 6.0 | 0.00 | 0.00 | 0.00 | 34 | 1005.0 |
| 20260506110518 | 80 | 349 | 0.0 | 8.0 | 0.00 | 0.00 | 0.00 | 33 | 1005.0 |
| 20260506110413 | 80 | 349 | 0.0 | 8.0 | 0.00 | 0.00 | 0.00 | 33 | 1005.0 |
| 20260506110315 | 80 | 349 | 2.0 | 8.0 | 0.00 | 0.00 | 0.00 | 32 | 1005.1 |
| 20260506110217 | 80 | 349 | 3.0 | 8.0 | 0.00 | 0.00 | 0.00 | 32 | 1005.0 |
| 20260506110120 | 80 | 353 | 4.0 | 10.0 | 0.00 | 0.00 | 0.00 | 33 | 1005.0 |
| 20260506110057 | 80 | 326 | 3.0 | 11.0 | 0.00 | 0.00 | 0.00 | 32 | 1003.9 |
| 20260506110012 | 80 | 33 | 4.0 | 11.0 | 0.00 | 0.00 | 0.00 | 32 | 1005.0 |
| 20260506105919 | 80 | 294 | 3.0 | 11.0 | 0.00 | 0.00 | 0.00 | 33 | 1005.1 |
| 20260506105822 | 81 | 289 | 3.0 | 11.0 | 0.00 | 0.00 | 0.00 | 33 | 1005.1 |
| 20260506105723 | 81 | 289 | 4.0 | 11.0 | 0.00 | 0.00 | 0.00 | 32 | 1005.2 |
| 20260506105656 | 80 | 289 | 4.0 | 11.0 | 0.00 | 0.00 | 0.00 | 34 | 1004.1 |
| 20260506105553 | 81 | 249 | 4.0 | 11.0 | 0.00 | 0.00 | 0.00 | 33 | 1005.1 |
| 20260506105456 | 81 | 257 | 5.0 | 11.0 | 0.00 | 0.00 | 0.00 | 33 | 1005.2 |
| 20260506105359 | 81 | 294 | 7.0 | 11.0 | 0.00 | 0.00 | 0.00 | 34 | 1005.1 |
| 20260506105305 | 81 | 272 | 6.0 | 11.0 | 0.00 | 0.00 | 0.00 | 34 | 1005.1 |
| 20260506105155 | 80 | 186 | 5.0 | 9.0 | 0.00 | 0.00 | 0.00 | 35 | 1005.2 |
| 20260506105054 | 80 | 195 | 3.0 | 8.0 | 0.00 | 0.00 | 0.00 | 35 | 1005.2 |
| 20260506104956 | 80 | 107 | 2.0 | 8.0 | 0.00 | 0.00 | 0.00 | 36 | 1005.2 |
| 20260506104857 | 80 | 219 | 2.0 | 8.0 | 0.00 | 0.00 | 0.00 | 36 | 1005.3 |
| 20260506104730 | 80 | 219 | 4.0 | 11.0 | 0.00 | 0.00 | 0.00 | 38 | 1005.3 |
| 20260506104637 | 80 | 218 | 5.0 | 11.0 | 0.00 | 0.00 | 0.00 | 39 | 1005.3 |
| 20260506104600 | 79 | 218 | 4.0 | 11.0 | 0.00 | 0.00 | 0.00 | 39 | 1004.2 |
| 20260506104527 | 79 | 255 | 4.0 | 11.0 | 0.00 | 0.00 | 0.00 | 37 | 1005.3 |
| 20260506104409 | 79 | 239 | 2.0 | 11.0 | 0.00 | 0.00 | 0.00 | 37 | 1005.4 |
| 20260506104311 | 79 | 222 | 2.0 | 11.0 | 0.00 | 0.00 | 0.00 | 36 | 1005.3 |
| 20260506104212 | 79 | 224 | 2.0 | 11.0 | 0.00 | 0.00 | 0.00 | 37 | 1005.3 |
| 20260506104143 | 79 | 224 | 2.0 | 11.0 | 0.00 | 0.00 | 0.00 | 37 | 1004.3 |
| 20260506104041 | 79 | 238 | 6.0 | 11.0 | 0.00 | 0.00 | 0.00 | 38 | 1005.4 |
| 20260506103944 | 79 | 236 | 7.0 | 12.0 | 0.00 | 0.00 | 0.00 | 38 | 1005.3 |
| 20260506103852 | 79 | 250 | 7.0 | 11.0 | 0.00 | 0.00 | 0.00 | 39 | 1005.4 |
| 20260506103734 | 79 | 251 | 8.0 | 11.0 | 0.00 | 0.00 | 0.00 | 39 | 1005.4 |
| 20260506103649 | 78 | 253 | 8.0 | 11.0 | 0.00 | 0.00 | 0.00 | 39 | 1004.3 |
| 20260506103606 | 79 | 243 | 8.0 | 11.0 | 0.00 | 0.00 | 0.00 | 40 | 1005.4 |
| 20260506103504 | 79 | 247 | 5.0 | 7.0 | 0.00 | 0.00 | 0.00 | 39 | 1005.4 |
| 20260506103347 | 79 | 284 | 4.0 | 6.0 | 0.00 | 0.00 | 0.00 | 38 | 1005.4 |
| 20260506103236 | 78 | 326 | 4.0 | 6.0 | 0.00 | 0.00 | 0.00 | 39 | 1005.4 |
| 20260506103142 | 78 | 268 | 2.0 | 6.0 | 0.00 | 0.00 | 0.00 | 39 | 1005.4 |
| 20260506103042 | 78 | 331 | 2.0 | 6.0 | 0.00 | 0.00 | 0.00 | 36 | 1005.4 |
| 20260506102945 | 78 | 331 | 1.0 | 6.0 | 0.00 | 0.00 | 0.00 | 36 | 1005.4 |
| 20260506102848 | 78 | 327 | 1.0 | 6.0 | 0.00 | 0.00 | 0.00 | 37 | 1005.4 |
| 20260506102742 | 78 | 85 | 3.0 | 6.0 | 0.00 | 0.00 | 0.00 | 37 | 1005.4 |
| 20260506102644 | 78 | 85 | 4.0 | 6.0 | 0.00 | 0.00 | 0.00 | 39 | 1005.4 |
| 20260506102531 | 78 | 70 | 2.0 | 6.0 | 0.00 | 0.00 | 0.00 | 39 | 1005.4 |
| 20260506102508 | 78 | 99 | 1.0 | 7.0 | 0.00 | 0.00 | 0.00 | 41 | 1004.3 |
| 20260506102423 | 78 | 24 | 1.0 | 7.0 | 0.00 | 0.00 | 0.00 | 41 | 1005.4 |
| 20260506102325 | 78 | 82 | 2.0 | 7.0 | 0.00 | 0.00 | 0.00 | 41 | 1005.5 |
| 20260506102227 | 78 | 67 | 2.0 | 7.0 | 0.00 | 0.00 | 0.00 | 41 | 1005.5 |
| 20260506102159 | 77 | 337 | 2.0 | 7.0 | 0.00 | 0.00 | 0.00 | 41 | 1004.4 |
| 20260506102121 | 78 | 57 | 3.0 | 7.0 | 0.00 | 0.00 | 0.00 | 41 | 1005.6 |
| 20260506102022 | 78 | 55 | 2.0 | 8.0 | 0.00 | 0.00 | 0.00 | 42 | 1005.6 |
| 20260506101904 | 78 | 16 | 3.0 | 8.0 | 0.00 | 0.00 | 0.00 | 42 | 1005.7 |
| 20260506101811 | 78 | 42 | 3.0 | 8.0 | 0.00 | 0.00 | 0.00 | 43 | 1005.8 |
| 20260506101705 | 77 | 153 | 3.0 | 8.0 | 0.00 | 0.00 | 0.00 | 41 | 1005.7 |
| 20260506101606 | 77 | 115 | 3.0 | 9.0 | 0.00 | 0.00 | 0.00 | 41 | 1005.8 |
| 20260506101505 | 77 | 107 | 4.0 | 9.0 | 0.00 | 0.00 | 0.00 | 41 | 1005.8 |
| 20260506101408 | 77 | 93 | 4.0 | 9.0 | 0.00 | 0.00 | 0.00 | 42 | 1005.7 |
| 20260506101303 | 77 | 72 | 4.0 | 9.0 | 0.00 | 0.00 | 0.00 | 42 | 1005.7 |
| 20260506101210 | 77 | 119 | 3.0 | 9.0 | 0.00 | 0.00 | 0.00 | 41 | 1005.7 |
| 20260506101111 | 77 | 95 | 3.0 | 9.0 | 0.00 | 0.00 | 0.00 | 41 | 1005.7 |
| 20260506101011 | 77 | 101 | 4.0 | 9.0 | 0.00 | 0.00 | 0.00 | 41 | 1005.7 |
| 20260506100904 | 77 | 52 | 4.0 | 9.0 | 0.00 | 0.00 | 0.00 | 42 | 1005.8 |
| 20260506100807 | 77 | 102 | 2.0 | 9.0 | 0.00 | 0.00 | 0.00 | 44 | 1005.8 |
| 20260506100649 | 77 | 120 | 2.0 | 6.0 | 0.00 | 0.00 | 0.00 | 42 | 1005.8 |
| 20260506100550 | 77 | 82 | 2.0 | 8.0 | 0.00 | 0.00 | 0.00 | 41 | 1005.8 |
| 20260506100528 | 76 | 82 | 1.0 | 8.0 | 0.00 | 0.00 | 0.00 | 42 | 1004.7 |
| 20260506100448 | 77 | 69 | 2.0 | 8.0 | 0.00 | 0.00 | 0.00 | 44 | 1005.9 |
| 20260506100329 | 77 | 114 | 4.0 | 8.0 | 0.00 | 0.00 | 0.00 | 43 | 1005.9 |
| 20260506100231 | 77 | 105 | 5.0 | 9.0 | 0.00 | 0.00 | 0.00 | 43 | 1005.9 |
| 20260506100111 | 77 | 91 | 4.0 | 13.0 | 0.00 | 0.00 | 0.00 | 42 | 1005.9 |
| 20260506100003 | 77 | 66 | 3.0 | 13.0 | 0.00 | 0.00 | 0.00 | 42 | 1005.9 |
| 20260506095737 | 76 | 94 | 5.0 | 13.0 | 0.00 | 0.00 | 0.00 | 45 | 1006.0 |
| 20260506095645 | 76 | 95 | 5.0 | 13.0 | 0.00 | 0.00 | 0.00 | 45 | 1006.0 |
| 20260506095618 | 76 | 70 | 5.0 | 13.0 | 0.00 | 0.00 | 0.00 | 45 | 1004.9 |
| 20260506095536 | 76 | 92 | 6.0 | 13.0 | 0.00 | 0.00 | 0.00 | 45 | 1006.0 |
| 20260506095438 | 76 | 109 | 7.0 | 13.0 | 0.00 | 0.00 | 0.00 | 44 | 1006.0 |
| 20260506095341 | 76 | 94 | 8.0 | 13.0 | 0.00 | 0.00 | 0.00 | 45 | 1006.1 |
| 20260506095233 | 76 | 93 | 8.0 | 13.0 | 0.00 | 0.00 | 0.00 | 45 | 1006.0 |
| 20260506095136 | 76 | 57 | 7.0 | 12.0 | 0.00 | 0.00 | 0.00 | 47 | 1006.1 |
| 20260506095041 | 76 | 117 | 6.0 | 12.0 | 0.00 | 0.00 | 0.00 | 47 | 1006.0 |
| 20260506094923 | 76 | 103 | 6.0 | 14.0 | 0.00 | 0.00 | 0.00 | 45 | 1006.0 |
| 20260506094816 | 76 | 344 | 5.0 | 14.0 | 0.00 | 0.00 | 0.00 | 45 | 1006.0 |
| 20260506094719 | 76 | 89 | 6.0 | 14.0 | 0.00 | 0.00 | 0.00 | 45 | 1006.1 |
| 20260506094619 | 76 | 58 | 7.0 | 14.0 | 0.00 | 0.00 | 0.00 | 47 | 1006.1 |
| 20260506094501 | 76 | 74 | 6.0 | 14.0 | 0.00 | 0.00 | 0.00 | 46 | 1006.1 |
| 20260506094335 | 76 | 110 | 7.0 | 14.0 | 0.00 | 0.00 | 0.00 | 45 | 1006.1 |
| 20260506094219 | 76 | 70 | 9.0 | 14.0 | 0.00 | 0.00 | 0.00 | 46 | 1006.2 |
| 20260506094119 | 76 | 112 | 10.0 | 14.0 | 0.00 | 0.00 | 0.00 | 47 | 1006.2 |
| 20260506094001 | 76 | 94 | 9.0 | 14.0 | 0.00 | 0.00 | 0.00 | 47 | 1006.2 |
| 20260506093832 | 76 | 78 | 6.0 | 12.0 | 0.00 | 0.00 | 0.00 | 47 | 1006.3 |
| 20260506093735 | 75 | 110 | 4.0 | 12.0 | 0.00 | 0.00 | 0.00 | 48 | 1006.3 |
| 20260506093639 | 75 | 39 | 5.0 | 12.0 | 0.00 | 0.00 | 0.00 | 47 | 1006.3 |
| 20260506093544 | 75 | 85 | 7.0 | 12.0 | 0.00 | 0.00 | 0.00 | 48 | 1006.4 |
| 20260506093447 | 75 | 80 | 6.0 | 12.0 | 0.00 | 0.00 | 0.00 | 47 | 1006.4 |
| 20260506093342 | 75 | 70 | 6.0 | 12.0 | 0.00 | 0.00 | 0.00 | 48 | 1006.4 |
| 20260506093243 | 75 | 106 | 8.0 | 12.0 | 0.00 | 0.00 | 0.00 | 48 | 1006.4 |
| 20260506093146 | 75 | 82 | 8.0 | 12.0 | 0.00 | 0.00 | 0.00 | 49 | 1006.5 |
| 20260506093047 | 75 | 111 | 8.0 | 12.0 | 0.00 | 0.00 | 0.00 | 48 | 1006.5 |
| 20260506093031 | 75 | 47 | 7.0 | 12.0 | 0.00 | 0.00 | 0.00 | 48 | 1005.4 |
| 20260506092942 | 75 | 88 | 7.0 | 14.0 | 0.00 | 0.00 | 0.00 | 48 | 1006.5 |
| 20260506092827 | 75 | 55 | 7.0 | 14.0 | 0.00 | 0.00 | 0.00 | 48 | 1006.5 |
| 20260506092731 | 75 | 109 | 7.0 | 14.0 | 0.00 | 0.00 | 0.00 | 48 | 1006.5 |
| 20260506092650 | 74 | 89 | 6.0 | 14.0 | 0.00 | 0.00 | 0.00 | 49 | 1005.5 |
| 20260506092433 | 75 | 55 | 4.0 | 14.0 | 0.00 | 0.00 | 0.00 | 50 | 1006.5 |
| 20260506092334 | 75 | 101 | 5.0 | 15.0 | 0.00 | 0.00 | 0.00 | 51 | 1006.6 |
| 20260506092227 | 75 | 68 | 8.0 | 15.0 | 0.00 | 0.00 | 0.00 | 50 | 1006.6 |
| 20260506092114 | 75 | 116 | 10.0 | 15.0 | 0.00 | 0.00 | 0.00 | 50 | 1006.6 |
| 20260506092015 | 74 | 74 | 8.0 | 15.0 | 0.00 | 0.00 | 0.00 | 49 | 1006.6 |
| 20260506091916 | 74 | 105 | 8.0 | 15.0 | 0.00 | 0.00 | 0.00 | 49 | 1006.6 |
| 20260506091810 | 74 | 95 | 8.0 | 15.0 | 0.00 | 0.00 | 0.00 | 50 | 1006.6 |
| 20260506091712 | 74 | 88 | 9.0 | 15.0 | 0.00 | 0.00 | 0.00 | 49 | 1006.7 |
| 20260506091612 | 74 | 102 | 9.0 | 15.0 | 0.00 | 0.00 | 0.00 | 50 | 1006.6 |
| 20260506091454 | 74 | 78 | 8.0 | 13.0 | 0.00 | 0.00 | 0.00 | 52 | 1006.6 |
| 20260506091331 | 74 | 117 | 9.0 | 12.0 | 0.00 | 0.00 | 0.00 | 50 | 1006.8 |
| 20260506091234 | 74 | 104 | 8.0 | 12.0 | 0.00 | 0.00 | 0.00 | 52 | 1006.7 |
| 20260506091138 | 74 | 89 | 4.0 | 12.0 | 0.00 | 0.00 | 0.00 | 51 | 1006.7 |
| 20260506091053 | 73 | 105 | 3.0 | 12.0 | 0.00 | 0.00 | 0.00 | 50 | 1005.7 |
| 20260506091008 | 74 | 55 | 5.0 | 12.0 | 0.00 | 0.00 | 0.00 | 50 | 1006.8 |
| 20260506090908 | 74 | 54 | 7.0 | 12.0 | 0.00 | 0.00 | 0.00 | 50 | 1006.8 |
| 20260506090809 | 74 | 71 | 7.0 | 12.0 | 0.00 | 0.00 | 0.00 | 50 | 1006.8 |
| 20260506090717 | 74 | 72 | 5.0 | 11.0 | 0.00 | 0.00 | 0.00 | 50 | 1006.9 |
| 20260506090652 | 73 | 68 | 4.0 | 11.0 | 0.00 | 0.00 | 0.00 | 50 | 1005.9 |
| 20260506090607 | 74 | 89 | 4.0 | 14.0 | 0.00 | 0.00 | 0.00 | 51 | 1006.9 |
| 20260506090428 | 74 | 84 | 6.0 | 14.0 | 0.00 | 0.00 | 0.00 | 50 | 1007.0 |
| 20260506090330 | 74 | 101 | 7.0 | 14.0 | 0.00 | 0.00 | 0.00 | 50 | 1006.9 |
| 20260506090213 | 74 | 72 | 8.0 | 14.0 | 0.00 | 0.00 | 0.00 | 51 | 1007.0 |
| 20260506090150 | 73 | 101 | 7.0 | 14.0 | 0.00 | 0.00 | 0.00 | 51 | 1005.9 |
| 20260506090104 | 74 | 103 | 7.0 | 14.0 | 0.00 | 0.00 | 0.00 | 51 | 1007.0 |
| 20260506090010 | 74 | 102 | 5.0 | 14.0 | 0.00 | 0.00 | 0.00 | 51 | 1006.9 |
| 20260506085914 | 74 | 68 | 7.0 | 14.0 | 0.00 | 0.00 | 0.00 | 50 | 1006.9 |
| 20260506085818 | 74 | 97 | 7.0 | 14.0 | 0.00 | 0.00 | 0.00 | 51 | 1006.9 |
| 20260506085712 | 73 | 108 | 7.0 | 11.0 | 0.00 | 0.00 | 0.00 | 52 | 1006.8 |
| 20260506085615 | 73 | 70 | 7.0 | 11.0 | 0.00 | 0.00 | 0.00 | 52 | 1006.9 |
| 20260506085517 | 73 | 92 | 5.0 | 10.0 | 0.00 | 0.00 | 0.00 | 53 | 1006.9 |
| 20260506085349 | 73 | 95 | 5.0 | 10.0 | 0.00 | 0.00 | 0.00 | 52 | 1007.0 |
| 20260506085257 | 73 | 54 | 5.0 | 10.0 | 0.00 | 0.00 | 0.00 | 52 | 1007.0 |
| 20260506085158 | 73 | 105 | 6.0 | 10.0 | 0.00 | 0.00 | 0.00 | 51 | 1007.0 |
| 20260506084921 | 73 | 106 | 4.0 | 8.0 | 0.00 | 0.00 | 0.00 | 52 | 1007.2 |
| 20260506084801 | 73 | 87 | 4.0 | 8.0 | 0.00 | 0.00 | 0.00 | 52 | 1007.2 |
| 20260506084704 | 73 | 53 | 3.0 | 8.0 | 0.00 | 0.00 | 0.00 | 53 | 1007.2 |
| 20260506084606 | 73 | 96 | 3.0 | 8.0 | 0.00 | 0.00 | 0.00 | 52 | 1007.1 |
| 20260506084549 | 72 | 85 | 3.0 | 8.0 | 0.00 | 0.00 | 0.00 | 52 | 1006.1 |
| 20260506084503 | 73 | 88 | 4.0 | 8.0 | 0.00 | 0.00 | 0.00 | 51 | 1007.1 |
| 20260506084405 | 73 | 71 | 5.0 | 8.0 | 0.00 | 0.00 | 0.00 | 51 | 1007.2 |
| 20260506084303 | 73 | 86 | 5.0 | 10.0 | 0.00 | 0.00 | 0.00 | 52 | 1007.2 |
| 20260506084204 | 73 | 95 | 3.0 | 10.0 | 0.00 | 0.00 | 0.00 | 53 | 1007.2 |
| 20260506084114 | 72 | 53 | 2.0 | 10.0 | 0.00 | 0.00 | 0.00 | 53 | 1006.1 |
| 20260506084035 | 73 | 72 | 1.0 | 10.0 | 0.00 | 0.00 | 0.00 | 52 | 1007.2 |
| 20260506083937 | 73 | 355 | 2.0 | 10.0 | 0.00 | 0.00 | 0.00 | 52 | 1007.2 |
| 20260506083844 | 73 | 47 | 4.0 | 10.0 | 0.00 | 0.00 | 0.00 | 52 | 1007.3 |
| 20260506083725 | 73 | 58 | 6.0 | 10.0 | 0.00 | 0.00 | 0.00 | 52 | 1007.3 |
| 20260506083633 | 73 | 109 | 6.0 | 10.0 | 0.00 | 0.00 | 0.00 | 52 | 1006.1 |
| 20260506083556 | 73 | 86 | 7.0 | 10.0 | 0.00 | 0.00 | 0.00 | 52 | 1007.3 |
| 20260506083437 | 73 | 92 | 5.0 | 10.0 | 0.00 | 0.00 | 0.00 | 53 | 1007.3 |
| 20260506083340 | 73 | 81 | 3.0 | 9.0 | 0.00 | 0.00 | 0.00 | 52 | 1007.3 |
| 20260506083220 | 73 | 34 | 5.0 | 9.0 | 0.00 | 0.00 | 0.00 | 52 | 1007.3 |
| 20260506083152 | 73 | 80 | 5.0 | 9.0 | 0.00 | 0.00 | 0.00 | 52 | 1006.2 |
| 20260506083116 | 73 | 82 | 5.0 | 9.0 | 0.00 | 0.00 | 0.00 | 52 | 1007.3 |
| 20260506083020 | 73 | 81 | 5.0 | 8.0 | 0.00 | 0.00 | 0.00 | 53 | 1007.3 |
| 20260506082900 | 73 | 94 | 4.0 | 8.0 | 0.00 | 0.00 | 0.00 | 53 | 1007.3 |
| 20260506082802 | 73 | 82 | 3.0 | 7.0 | 0.00 | 0.00 | 0.00 | 53 | 1007.3 |
| 20260506082655 | 73 | 103 | 2.0 | 7.0 | 0.00 | 0.00 | 0.00 | 53 | 1007.3 |
| 20260506082555 | 73 | 94 | 2.0 | 7.0 | 0.00 | 0.00 | 0.00 | 53 | 1007.3 |
| 20260506082458 | 73 | 94 | 2.0 | 7.0 | 0.00 | 0.00 | 0.00 | 53 | 1007.3 |
| 20260506082404 | 73 | 94 | 3.0 | 7.0 | 0.00 | 0.00 | 0.00 | 54 | 1007.3 |
| 20260506082309 | 73 | 99 | 3.0 | 7.0 | 0.00 | 0.00 | 0.00 | 53 | 1007.3 |
| 20260506082157 | 73 | 52 | 4.0 | 7.0 | 0.00 | 0.00 | 0.00 | 53 | 1007.3 |
| 20260506082058 | 73 | 93 | 3.0 | 7.0 | 0.00 | 0.00 | 0.00 | 54 | 1007.3 |
| 20260506082001 | 73 | 109 | 2.0 | 5.0 | 0.00 | 0.00 | 0.00 | 53 | 1007.4 |
| 20260506081905 | 72 | 105 | 1.0 | 5.0 | 0.00 | 0.00 | 0.00 | 54 | 1007.4 |
| 20260506081735 | 72 | 105 | 1.0 | 8.0 | 0.00 | 0.00 | 0.00 | 54 | 1007.4 |
| 20260506081641 | 72 | 105 | 2.0 | 8.0 | 0.00 | 0.00 | 0.00 | 53 | 1007.4 |
| 20260506081542 | 72 | 105 | 2.0 | 8.0 | 0.00 | 0.00 | 0.00 | 54 | 1007.4 |
| 20260506081508 | 72 | 79 | 1.0 | 8.0 | 0.00 | 0.00 | 0.00 | 55 | 1006.3 |
| 20260506081436 | 72 | 99 | 0.0 | 8.0 | 0.00 | 0.00 | 0.00 | 55 | 1007.4 |
| 20260506081318 | 72 | 99 | 1.0 | 8.0 | 0.00 | 0.00 | 0.00 | 55 | 1007.4 |
| 20260506081219 | 72 | 99 | 2.0 | 8.0 | 0.00 | 0.00 | 0.00 | 54 | 1007.4 |
| 20260506081057 | 72 | 93 | 4.0 | 8.0 | 0.00 | 0.00 | 0.00 | 54 | 1007.4 |
| 20260506081003 | 72 | 109 | 4.0 | 8.0 | 0.00 | 0.00 | 0.00 | 55 | 1007.4 |
| 20260506080857 | 72 | 88 | 3.0 | 6.0 | 0.00 | 0.00 | 0.00 | 56 | 1007.4 |
| 20260506080800 | 72 | 59 | 3.0 | 6.0 | 0.00 | 0.00 | 0.00 | 55 | 1007.4 |
| 20260506080702 | 72 | 49 | 2.0 | 6.0 | 0.00 | 0.00 | 0.00 | 57 | 1007.4 |
| 20260506080626 | 71 | 82 | 1.0 | 5.0 | 0.00 | 0.00 | 0.00 | 57 | 1006.3 |
| 20260506080554 | 72 | 349 | 1.0 | 4.0 | 0.00 | 0.00 | 0.00 | 57 | 1007.4 |
| 20260506080436 | 71 | 356 | 0.0 | 4.0 | 0.00 | 0.00 | 0.00 | 58 | 1007.4 |
| 20260506080338 | 71 | 72 | 1.0 | 4.0 | 0.00 | 0.00 | 0.00 | 58 | 1007.5 |
| 20260506080245 | 71 | 95 | 1.0 | 4.0 | 0.00 | 0.00 | 0.00 | 57 | 1007.5 |
| 20260506080146 | 71 | 95 | 1.0 | 4.0 | 0.00 | 0.00 | 0.00 | 58 | 1007.5 |
| 20260506080119 | 71 | 27 | 0.0 | 3.0 | 0.00 | 0.00 | 0.00 | 58 | 1006.4 |
| 20260506073455 | 68 | 6 | 0.0 | 5.0 | 0.00 | 0.00 | 0.00 | 65 | 1008.0 |
| 20260506073357 | 68 | 6 | 1.0 | 5.0 | 0.00 | 0.00 | 0.00 | 65 | 1008.0 |
| 20260506073306 | 68 | 6 | 1.0 | 5.0 | 0.00 | 0.00 | 0.00 | 63 | 1008.0 |
| 20260506073153 | 68 | 50 | 1.0 | 5.0 | 0.00 | 0.00 | 0.00 | 64 | 1008.0 |
| 20260506073032 | 67 | 53 | 2.0 | 5.0 | 0.00 | 0.00 | 0.00 | 64 | 1007.9 |
| 20260506072936 | 67 | 62 | 2.0 | 5.0 | 0.00 | 0.00 | 0.00 | 64 | 1008.0 |
| 20260506072807 | 67 | 6 | 3.0 | 5.0 | 0.00 | 0.00 | 0.00 | 65 | 1008.0 |
| 20260506072709 | 67 | 351 | 3.0 | 5.0 | 0.00 | 0.00 | 0.00 | 64 | 1008.1 |
| 20260506072615 | 67 | 309 | 3.0 | 5.0 | 0.00 | 0.00 | 0.00 | 64 | 1008.1 |
| 20260506072508 | 67 | 309 | 2.0 | 5.0 | 0.00 | 0.00 | 0.00 | 64 | 1008.1 |
| 20260506072410 | 66 | 309 | 2.0 | 5.0 | 0.00 | 0.00 | 0.00 | 65 | 1008.1 |
| 20260506072305 | 66 | 276 | 2.0 | 5.0 | 0.00 | 0.00 | 0.00 | 66 | 1008.2 |
| 20260506072147 | 66 | 272 | 2.0 | 5.0 | 0.00 | 0.00 | 0.00 | 65 | 1008.2 |
| 20260506072046 | 66 | 279 | 2.0 | 5.0 | 0.00 | 0.00 | 0.00 | 65 | 1008.2 |
| 20260506071949 | 66 | 279 | 3.0 | 5.0 | 0.00 | 0.00 | 0.00 | 65 | 1008.2 |
| 20260506071847 | 66 | 261 | 2.0 | 5.0 | 0.00 | 0.00 | 0.00 | 66 | 1008.2 |
| 20260506071728 | 66 | 314 | 2.0 | 5.0 | 0.00 | 0.00 | 0.00 | 66 | 1008.2 |
| 20260506071610 | 66 | 344 | 3.0 | 5.0 | 0.00 | 0.00 | 0.00 | 66 | 1008.2 |
| 20260506071512 | 66 | 320 | 3.0 | 5.0 | 0.00 | 0.00 | 0.00 | 66 | 1008.2 |
| 20260506071405 | 66 | 315 | 3.0 | 7.0 | 0.00 | 0.00 | 0.00 | 67 | 1008.2 |
| 20260506071308 | 66 | 336 | 3.0 | 7.0 | 0.00 | 0.00 | 0.00 | 67 | 1008.2 |
| 20260506071133 | 65 | 315 | 3.0 | 7.0 | 0.00 | 0.00 | 0.00 | 67 | 1008.3 |
| 20260506071106 | 65 | 311 | 2.0 | 7.0 | 0.00 | 0.00 | 0.00 | 67 | 1007.2 |
| 20260506071023 | 65 | 297 | 3.0 | 7.0 | 0.00 | 0.00 | 0.00 | 68 | 1008.3 |
| 20260506070758 | 65 | 285 | 4.0 | 7.0 | 0.00 | 0.00 | 0.00 | 68 | 1008.3 |
| 20260506070652 | 65 | 262 | 4.0 | 7.0 | 0.00 | 0.00 | 0.00 | 68 | 1008.3 |
| 20260506070532 | 65 | 259 | 4.0 | 7.0 | 0.00 | 0.00 | 0.00 | 68 | 1008.3 |
| 20260506070434 | 65 | 299 | 4.0 | 7.0 | 0.00 | 0.00 | 0.00 | 68 | 1008.3 |
| 20260506070320 | 65 | 299 | 4.0 | 7.0 | 0.00 | 0.00 | 0.00 | 68 | 1008.4 |
| 20260506070213 | 65 | 277 | 4.0 | 7.0 | 0.00 | 0.00 | 0.00 | 68 | 1008.4 |
| 20260506070112 | 65 | 316 | 4.0 | 5.0 | 0.00 | 0.00 | 0.00 | 69 | 1008.4 |
| 20260506062505 | 62 | 263 | 3.0 | 4.0 | 0.00 | 0.00 | 0.00 | 74 | 1008.8 |
| 20260506062409 | 62 | 263 | 3.0 | 4.0 | 0.00 | 0.00 | 0.00 | 74 | 1008.8 |
| 20260506062251 | 62 | 263 | 3.0 | 4.0 | 0.00 | 0.00 | 0.00 | 74 | 1008.8 |
| 20260506062154 | 62 | 263 | 2.0 | 4.0 | 0.00 | 0.00 | 0.00 | 75 | 1008.8 |
| 20260506062107 | 61 | 264 | 2.0 | 4.0 | 0.00 | 0.00 | 0.00 | 75 | 1007.8 |
| 20260506062024 | 62 | 263 | 2.0 | 3.0 | 0.00 | 0.00 | 0.00 | 75 | 1008.8 |
| 20260506061620 | 62 | 263 | 2.0 | 4.0 | 0.00 | 0.00 | 0.00 | 75 | 1008.9 |
| 20260506061520 | 61 | 264 | 1.0 | 4.0 | 0.00 | 0.00 | 0.00 | 75 | 1009.0 |
| 20260506061401 | 61 | 263 | 1.0 | 4.0 | 0.00 | 0.00 | 0.00 | 76 | 1009.0 |
| 20260506061236 | 61 | 264 | 2.0 | 4.0 | 0.00 | 0.00 | 0.00 | 75 | 1009.0 |
| 20260506061116 | 61 | 264 | 2.0 | 4.0 | 0.00 | 0.00 | 0.00 | 76 | 1009.0 |
| 20260506061016 | 61 | 264 | 2.0 | 4.0 | 0.00 | 0.00 | 0.00 | 76 | 1009.0 |
| 20260506060920 | 61 | 263 | 2.0 | 4.0 | 0.00 | 0.00 | 0.00 | 77 | 1009.0 |
| 20260506060813 | 61 | 263 | 2.0 | 4.0 | 0.00 | 0.00 | 0.00 | 79 | 1009.0 |
| 20260506060717 | 61 | 263 | 2.0 | 4.0 | 0.00 | 0.00 | 0.00 | 79 | 1009.0 |
| 20260506060622 | 61 | 264 | 2.0 | 4.0 | 0.00 | 0.00 | 0.00 | 78 | 1009.0 |
| 20260506060525 | 61 | 264 | 2.0 | 4.0 | 0.00 | 0.00 | 0.00 | 78 | 1008.9 |
| 20260506060419 | 61 | 263 | 2.0 | 4.0 | 0.00 | 0.00 | 0.00 | 78 | 1008.9 |
| 20260506060321 | 61 | 263 | 3.0 | 4.0 | 0.00 | 0.00 | 0.00 | 78 | 1008.9 |
| 20260506060222 | 60 | 263 | 3.0 | 4.0 | 0.00 | 0.00 | 0.00 | 79 | 1008.9 |